FW6434 Weather Reports


time (UTC)temp
C
wind
direction
speed
KPH
gust
KPH
rain 1hr
cm
rain 24hr
cm
rain mn
cm
humidity
%
barometer
mb
20260510075529 14 65 1.6 11.3 0.00 0.00 0.00 61 1016.3
20260510075521 14 98 4.8 11.3 0.00 0.00 0.00 61 1016.5
20260510075421 15 78 0.0 11.3 0.00 0.00 0.00 60 1016.4
20260510075321 15 170 3.2 11.3 0.00 0.00 0.00 59 1016.4
20260510075223 15 172 4.8 9.7 0.00 0.00 0.00 61 1016.2
20260510075206 15 102 1.6 9.7 0.00 0.00 0.00 62 1016.5
20260510075149 14 81 4.8 9.7 0.00 0.00 0.00 61 1016.5
20260510075142 14 35 1.6 9.7 0.00 0.00 0.00 62 1016.6
20260510074822 15 71 3.2 9.7 0.00 0.00 0.00 60 1016.4
20260510074721 15 71 1.6 9.7 0.00 0.00 0.00 60 1016.4
20260510074620 15 54 1.6 9.7 0.00 0.00 0.00 62 1016.3
20260510074529 15 57 4.8 9.7 0.00 0.00 0.00 62 1016.3
20260510074521 15 57 4.8 9.7 0.00 0.00 0.00 61 1016.4
20260510074421 15 17 6.4 9.7 0.00 0.00 0.00 61 1016.6
20260510074320 14 65 0.0 9.7 0.00 0.00 0.00 64 1016.6
20260510074222 14 63 3.2 9.7 0.00 0.00 0.00 64 1016.5
20260510074207 14 211 3.2 9.7 0.00 0.00 0.00 62 1016.5
20260510074147 14 72 4.8 9.7 0.00 0.00 0.00 63 1016.5
20260510074141 14 72 4.8 9.7 0.00 0.00 0.00 63 1016.4
20260510073822 15 95 4.8 9.7 0.00 0.00 0.00 62 1016.5
20260510073721 15 113 3.2 9.7 0.00 0.00 0.00 63 1016.7
20260510073621 15 57 3.2 12.9 0.00 0.00 0.00 68 1016.6
20260510073529 14 151 0.0 12.9 0.00 0.00 0.00 68 1016.6
20260510073522 14 188 0.0 12.9 0.00 0.00 0.00 68 1016.6
20260510073421 14 56 3.2 12.9 0.00 0.00 0.00 66 1016.7
20260510073322 14 57 6.4 12.9 0.00 0.00 0.00 65 1016.5
20260510073221 14 161 0.0 12.9 0.00 0.00 0.00 66 1016.5
20260510073120 14 229 3.2 12.9 0.00 0.00 0.00 66 1016.5
20260510073029 13 180 0.0 12.9 0.00 0.00 0.00 66 1016.5
20260510073020 13 101 1.6 12.9 0.00 0.00 0.00 66 1016.5
20260510072921 13 63 1.6 12.9 0.00 0.00 0.00 67 1016.5
20260510072822 14 114 3.2 12.9 0.00 0.00 0.00 66 1016.5
20260510072722 14 41 4.8 12.9 0.00 0.00 0.00 66 1016.6
20260510072708 14 175 0.0 9.7 0.00 0.00 0.00 67 1016.7
20260510072659 14 45 3.2 6.4 0.00 0.00 0.00 67 1016.4
20260510072643 13 130 0.0 6.4 0.00 0.00 0.00 67 1016.4
20260510072637 13 131 0.0 6.4 0.00 0.00 0.00 67 1016.5
20260510072621 13 44 3.2 6.4 0.00 0.00 0.00 67 1016.7
20260510072604 13 72 3.2 6.4 0.00 0.00 0.00 67 1016.6
20260510072104 14 105 3.2 6.4 0.00 0.00 0.00 66 1016.4
20260510072057 14 105 3.2 6.4 0.00 0.00 0.00 66 1016.8
20260510072041 14 170 3.2 6.4 0.00 0.00 0.00 65 1016.8
20260510072025 14 177 0.0 9.7 0.00 0.00 0.00 67 1016.7
20260510071749 14 174 0.0 9.7 0.00 0.00 0.00 66 1016.7
20260510071522 14 154 0.0 9.7 0.00 0.00 0.00 67 1016.8
20260510071501 13 47 3.2 12.9 0.00 0.00 0.00 67 1016.6
20260510071457 13 68 4.8 12.9 0.00 0.00 0.00 66 1016.5
20260510071448 13 171 0.0 11.3 0.00 0.00 0.00 68 1016.8
20260510071433 13 66 0.0 11.3 0.00 0.00 0.00 69 1016.8
20260510071417 13 104 1.6 11.3 0.00 0.00 0.00 66 1016.7
20260510071402 13 85 3.2 11.3 0.00 0.00 0.00 66 1016.6
20260510071132 13 92 3.2 12.9 0.00 0.00 0.00 67 1016.8
20260510071116 13 48 4.8 12.9 0.00 0.00 0.00 68 1016.6
20260510071101 13 98 1.6 12.9 0.00 0.00 0.00 66 1016.9
20260510071045 13 67 0.0 12.9 0.00 0.00 0.00 68 1016.6
20260510071029 13 51 3.2 12.9 0.00 0.00 0.00 67 1016.5
20260510070540 13 103 4.8 12.9 0.00 0.00 0.00 67 1016.6
20260510070221 13 72 0.0 12.9 0.00 0.00 0.00 68 1016.7
20260510070121 13 44 4.8 12.9 0.00 0.00 0.00 67 1016.6
20260510070029 13 58 1.6 11.3 0.00 0.00 0.00 68 1016.6
20260510070021 13 58 1.6 11.3 0.00 0.00 0.00 67 1016.8
20260510065921 13 103 3.2 11.3 0.00 0.00 0.00 67 1016.8
20260510065822 13 70 3.2 11.3 0.00 0.00 0.00 68 1016.3
20260510065721 13 169 1.6 11.3 0.00 0.00 0.00 68 1016.6
20260510065621 13 83 1.6 11.3 0.00 0.00 0.00 68 1016.7
20260510065530 13 150 3.2 11.3 0.00 0.00 0.00 68 1016.7
20260510065521 13 74 4.8 11.3 0.00 0.00 0.00 68 1016.6
20260510065422 13 125 4.8 11.3 0.00 0.00 0.00 68 1016.8
20260510065357 12 74 0.0 11.3 0.00 0.00 0.00 70 1016.6
20260510065341 12 188 0.0 11.3 0.00 0.00 0.00 69 1016.6
20260510065029 13 69 9.7 12.9 0.00 0.00 0.00 68 1016.5
20260510065022 13 50 3.2 12.9 0.00 0.00 0.00 68 1016.5
20260510064920 13 64 3.2 12.9 0.00 0.00 0.00 69 1016.5
20260510064821 13 65 3.2 12.9 0.00 0.00 0.00 72 1016.6
20260510064721 13 127 1.6 12.9 0.00 0.00 0.00 71 1016.8
20260510064622 12 65 1.6 12.9 0.00 0.00 0.00 72 1016.5
20260510064529 12 175 1.6 12.9 0.00 0.00 0.00 72 1016.5
20260510064421 12 64 1.6 12.9 0.00 0.00 0.00 72 1016.6
20260510064323 12 82 4.8 12.9 0.00 0.00 0.00 72 1016.3
20260510064222 12 71 0.0 11.3 0.00 0.00 0.00 73 1016.3
20260510064123 12 102 0.0 11.3 0.00 0.00 0.00 74 1016.4
20260510064111 12 61 3.2 11.3 0.00 0.00 0.00 74 1016.4
20260510064105 11 64 1.6 12.9 0.00 0.00 0.00 78 1016.4
20260510064059 11 85 1.6 9.7 0.00 0.00 0.00 79 1016.6
20260510064042 12 64 1.6 11.3 0.00 0.00 0.00 73 1016.4
20260510064026 12 110 4.8 11.3 0.00 0.00 0.00 73 1016.5
20260510064010 12 84 1.6 11.3 0.00 0.00 0.00 74 1016.3
20260510063955 12 353 3.2 11.3 0.00 0.00 0.00 74 1016.7
20260510063939 12 59 3.2 11.3 0.00 0.00 0.00 74 1016.4
20260510063712 12 32 6.4 11.3 0.00 0.00 0.00 74 1016.5
20260510063436 12 53 4.8 11.3 0.00 0.00 0.00 76 1016.5
20260510063420 12 57 1.6 12.9 0.00 0.00 0.00 77 1016.4
20260510063142 11 153 0.0 12.9 0.00 0.00 0.00 76 1016.7
20260510063135 11 66 1.6 12.9 0.00 0.00 0.00 76 1016.4
20260510063120 11 96 0.0 12.9 0.00 0.00 0.00 77 1016.5
20260510063104 11 66 6.4 12.9 0.00 0.00 0.00 77 1016.5
20260510063048 11 55 6.4 12.9 0.00 0.00 0.00 77 1016.6
20260510062601 11 134 0.0 12.9 0.00 0.00 0.00 78 1016.5
20260510062545 11 109 3.2 12.9 0.00 0.00 0.00 77 1016.6
20260510062529 11 48 4.8 12.9 0.00 0.00 0.00 77 1016.5
20260510062512 11 87 1.6 9.7 0.00 0.00 0.00 78 1016.5
20260510062020 11 85 1.6 9.7 0.00 0.00 0.00 79 1016.5
20260510061921 11 55 3.2 9.7 0.00 0.00 0.00 79 1016.7
20260510061856 11 69 3.2 9.7 0.00 0.00 0.00 80 1016.6
20260510061840 11 54 1.6 6.4 0.00 0.00 0.00 80 1016.6
20260510061529 11 69 3.2 6.4 0.00 0.00 0.00 81 1016.7
20260510061521 11 57 6.4 6.4 0.00 0.00 0.00 81 1016.8
20260510061422 11 79 3.2 11.3 0.00 0.00 0.00 81 1016.7
20260510061321 11 80 0.0 11.3 0.00 0.00 0.00 83 1016.7
20260510061222 11 117 0.0 11.3 0.00 0.00 0.00 82 1016.8
20260510061206 11 78 1.6 11.3 0.00 0.00 0.00 82 1016.8
20260510061149 11 116 1.6 11.3 0.00 0.00 0.00 82 1016.8
20260510061142 11 174 0.0 11.3 0.00 0.00 0.00 83 1016.4
20260510060822 11 151 0.0 11.3 0.00 0.00 0.00 84 1016.7
20260510060721 11 91 3.2 11.3 0.00 0.00 0.00 83 1016.7
20260510060622 11 44 4.8 11.3 0.00 0.00 0.00 84 1016.5
20260510060529 11 91 1.6 11.3 0.00 0.00 0.00 84 1016.5
20260510060521 11 64 4.8 11.3 0.00 0.00 0.00 84 1016.6
20260510060449 10 126 0.0 6.4 0.00 0.00 0.00 87 1016.6
20260510060445 10 129 0.0 3.2 0.00 0.00 0.00 89 1016.9
20260510060440 10 63 1.6 6.4 0.00 0.00 0.00 89 1017.0
20260510060435 10 77 0.0 6.4 0.00 0.00 0.00 90 1016.6
20260510060428 11 53 6.4 11.3 0.00 0.00 0.00 84 1016.6
20260510060414 11 70 3.2 9.7 0.00 0.00 0.00 85 1016.5
20260510060359 11 61 1.6 9.7 0.00 0.00 0.00 84 1016.5
20260510060343 11 48 0.0 9.7 0.00 0.00 0.00 86 1016.7
20260510060326 11 103 0.0 9.7 0.00 0.00 0.00 86 1016.7
20260510060319 11 103 0.0 9.7 0.00 0.00 0.00 85 1016.6
20260510060042 10 89 0.0 9.7 0.00 0.00 0.00 86 1016.8
20260510060027 10 90 6.4 9.7 0.00 0.00 0.00 86 1016.6
20260510060010 10 119 0.0 6.4 0.00 0.00 0.00 87 1016.6
20260510055742 10 142 0.0 6.4 0.00 0.00 0.00 87 1016.6
20260510055726 11 73 3.2 4.8 0.00 0.00 0.00 86 1016.6
20260510055709 11 49 1.6 3.2 0.00 0.00 0.00 88 1016.7
20260510055653 10 50 1.6 3.2 0.00 0.00 0.00 89 1016.7
20260510055638 10 69 0.0 3.2 0.00 0.00 0.00 88 1016.9
20260510055409 10 118 0.0 3.2 0.00 0.00 0.00 89 1016.6
20260510055354 10 91 0.0 3.2 0.00 0.00 0.00 88 1017.0
20260510055337 10 62 3.2 6.4 0.00 0.00 0.00 89 1016.9
20260510055102 10 60 1.6 6.4 0.00 0.00 0.00 89 1017.0
20260510054835 10 101 0.0 6.4 0.00 0.00 0.00 89 1017.0
20260510054818 10 75 0.0 6.4 0.00 0.00 0.00 90 1016.8
20260510054803 10 79 0.0 6.4 0.00 0.00 0.00 90 1016.8
20260510054747 10 58 0.0 6.4 0.00 0.00 0.00 90 1016.9
20260510054258 10 77 0.0 6.4 0.00 0.00 0.00 90 1017.0
20260510054023 10 110 0.0 4.8 0.00 0.00 0.00 90 1017.1
20260510054008 10 86 0.0 4.8 0.00 0.00 0.00 91 1017.1
20260510053732 10 115 1.6 4.8 0.00 0.00 0.00 91 1017.1
20260510053422 10 72 0.0 4.8 0.00 0.00 0.00 92 1017.0
20260510053410 9 65 1.6 4.8 0.00 0.00 0.00 92 1017.1
20260510053400 9 85 1.6 4.8 0.00 0.00 0.00 91 1016.8
20260510053344 9 79 1.6 4.8 0.00 0.00 0.00 91 1017.0
20260510053327 9 62 3.2 4.8 0.00 0.00 0.00 92 1017.1
20260510053058 9 56 0.0 4.8 0.00 0.00 0.00 92 1016.9
20260510053042 9 58 0.0 4.8 0.00 0.00 0.00 92 1017.0
20260510053025 9 62 1.6 4.8 0.00 0.00 0.00 92 1017.0
20260510053008 9 116 0.0 4.8 0.00 0.00 0.00 93 1017.1
20260510052732 9 133 0.0 4.8 0.00 0.00 0.00 93 1016.9
20260510052448 9 80 0.0 4.8 0.00 0.00 0.00 93 1017.0
20260510052432 9 68 1.6 4.8 0.00 0.00 0.00 93 1017.1
20260510052416 9 57 1.6 4.8 0.00 0.00 0.00 93 1017.2
20260510052400 9 71 0.0 4.8 0.00 0.00 0.00 93 1017.0
20260510052343 9 87 1.6 4.8 0.00 0.00 0.00 94 1017.0
20260510052336 9 87 1.6 4.8 0.00 0.00 0.00 94 1017.2
20260510051841 8 113 0.0 3.2 0.00 0.00 0.00 95 1017.3
20260510051605 8 110 0.0 3.2 0.00 0.00 0.00 95 1017.1
20260510051559 8 64 1.6 3.2 0.00 0.00 0.00 95 1017.2
20260510051542 8 74 1.6 3.2 0.00 0.00 0.00 95 1017.1
20260510051220 8 74 1.6 3.2 0.00 0.00 0.00 96 1017.3
20260510051205 8 128 0.0 1.6 0.00 0.00 0.00 96 1017.4
20260510051148 8 81 0.0 1.6 0.00 0.00 0.00 96 1017.4
20260510051141 8 98 0.0 1.6 0.00 0.00 0.00 96 1017.3
20260510050822 8 104 0.0 1.6 0.00 0.00 0.00 97 1017.1
20260510050721 8 81 0.0 1.6 0.00 0.00 0.00 97 1017.3
20260510050621 8 131 0.0 1.6 0.00 0.00 0.00 98 1017.2
20260510050529 8 88 0.0 1.6 0.00 0.00 0.00 98 1017.2
20260510050521 8 118 0.0 1.6 0.00 0.00 0.00 98 1017.2
20260510050421 7 138 0.0 3.2 0.00 0.00 0.00 98 1017.4
20260510050358 7 155 0.0 3.2 0.00 0.00 0.00 98 1017.4
20260510050341 7 143 0.0 3.2 0.00 0.00 0.00 98 1017.1
20260510050029 7 122 0.0 3.2 0.00 0.00 0.00 99 1017.3
20260510050022 7 122 0.0 3.2 0.00 0.00 0.00 99 1017.2
20260510045921 7 85 0.0 3.2 0.00 0.00 0.00 99 1017.2
20260510045857 7 142 0.0 3.2 0.00 0.00 0.00 99 1017.2
20260510045841 7 122 0.0 4.8 0.00 0.00 0.00 99 1017.3
20260510045604 7 46 3.2 4.8 0.00 0.00 0.00 100 1017.2
20260510045558 7 88 0.0 4.8 0.00 0.00 0.00 100 1017.1
20260510045542 7 60 1.6 4.8 0.00 0.00 0.00 100 1017.3
20260510045253 6 130 0.0 3.2 0.00 0.00 0.00 100 1017.2
20260510045245 7 65 1.6 4.8 0.00 0.00 0.00 100 1017.1
20260510045230 7 106 0.0 4.8 0.00 0.00 0.00 100 1017.3
20260510045211 7 68 0.0 4.8 0.00 0.00 0.00 100 1017.3
20260510045204 7 72 0.0 4.8 0.00 0.00 0.00 100 1017.3
20260510045148 7 74 0.0 4.8 0.00 0.00 0.00 100 1017.1
20260510045132 7 76 1.6 4.8 0.00 0.00 0.00 100 1017.1
20260510045116 7 108 0.0 3.2 0.00 0.00 0.00 100 1017.3
20260510045100 6 69 1.6 3.2 0.00 0.00 0.00 100 1017.3
20260510045044 6 72 0.0 3.2 0.00 0.00 0.00 100 1017.3
20260510045037 6 93 0.0 3.2 0.00 0.00 0.00 100 1017.2
20260510044800 6 76 0.0 3.2 0.00 0.00 0.00 100 1017.4
20260510044524 6 73 0.0 3.2 0.00 0.00 0.00 100 1017.3
20260510044505 6 88 0.0 3.2 0.00 0.00 0.00 100 1017.3
20260510044459 6 88 0.0 3.2 0.00 0.00 0.00 100 1017.2
20260510044442 6 108 0.0 3.2 0.00 0.00 0.00 100 1017.5
20260510044425 6 98 0.0 3.2 0.00 0.00 0.00 100 1017.3
20260510044149 6 112 0.0 3.2 0.00 0.00 0.00 100 1017.2
20260510043922 6 131 0.0 3.2 0.00 0.00 0.00 100 1017.3
20260510043123 6 142 0.0 3.2 0.00 0.00 0.00 100 1017.3
20260510043023 6 131 0.0 3.2 0.00 0.00 0.00 100 1017.3
20260510042921 6 76 0.0 3.2 0.00 0.00 0.00 100 1017.3
20260510042821 6 71 0.0 3.2 0.00 0.00 0.00 100 1017.4
20260510042721 6 79 0.0 3.2 0.00 0.00 0.00 100 1017.5
20260510042621 6 79 1.6 3.2 0.00 0.00 0.00 100 1017.3
20260510042529 6 121 0.0 1.6 0.00 0.00 0.00 100 1017.3
20260510042522 6 124 0.0 1.6 0.00 0.00 0.00 100 1017.3
20260510042422 6 129 0.0 1.6 0.00 0.00 0.00 100 1017.5
20260510042321 6 141 0.0 1.6 0.00 0.00 0.00 100 1017.4
20260510042221 6 139 0.0 1.6 0.00 0.00 0.00 100 1017.2
20260510042120 6 137 0.0 1.6 0.00 0.00 0.00 100 1017.4
20260510042029 6 133 0.0 1.6 0.00 0.00 0.00 100 1017.4
20260510042021 6 133 0.0 1.6 0.00 0.00 0.00 100 1017.5
20260510041921 6 130 0.0 1.6 0.00 0.00 0.00 100 1017.5
20260510041825 6 149 0.0 1.6 0.00 0.00 0.00 100 1017.5
20260510041821 6 150 0.0 1.6 0.00 0.00 0.00 100 1017.4
20260510041805 6 151 0.0 1.6 0.00 0.00 0.00 100 1017.5
20260510041748 6 150 0.0 1.6 0.00 0.00 0.00 100 1017.5
20260510041521 6 148 0.0 0.0 0.00 0.00 0.00 100 1017.5
20260510041421 6 160 0.0 0.0 0.00 0.00 0.00 100 1017.5
20260510041321 6 160 0.0 0.0 0.00 0.00 0.00 100 1017.7
20260510041221 6 159 0.0 0.0 0.00 0.00 0.00 100 1017.3
20260510041123 5 158 0.0 0.0 0.00 0.00 0.00 100 1017.2
20260510041029 5 156 0.0 0.0 0.00 0.00 0.00 100 1017.2
20260510041022 5 156 0.0 0.0 0.00 0.00 0.00 100 1017.3
20260510040921 5 154 0.0 0.0 0.00 0.00 0.00 100 1017.5
20260510040821 5 154 0.0 0.0 0.00 0.00 0.00 100 1017.1
20260510040721 5 158 0.0 0.0 0.00 0.00 0.00 100 1017.5
20260510040621 5 162 0.0 0.0 0.00 0.00 0.00 100 1017.4
20260510040530 5 162 0.0 0.0 0.00 0.00 0.00 100 1017.4
20260510040521 5 162 0.0 0.0 0.00 0.00 0.00 100 1017.3
20260510040421 5 163 0.0 0.0 0.00 0.00 0.00 100 1017.2
20260510040321 5 164 0.0 0.0 0.00 0.00 0.00 100 1017.5
20260510040221 5 165 0.0 0.0 0.00 0.00 0.00 100 1017.2
20260510040121 5 166 0.0 0.0 0.00 0.00 0.00 100 1017.2
20260510040029 5 167 0.0 0.0 0.00 0.00 0.00 100 1017.2
20260510040022 5 167 0.0 0.0 0.00 0.00 0.00 100 1017.4
20260510035922 5 168 0.0 0.0 0.00 0.00 0.00 100 1017.2
20260510035854 5 168 0.0 0.0 0.00 0.00 0.00 100 1017.3
20260510035839 5 168 0.0 0.0 0.00 0.00 0.00 100 1017.5
20260510035824 5 169 0.0 0.0 0.00 0.00 0.00 100 1017.2
20260510035808 5 169 0.0 0.0 0.00 0.00 0.00 100 1017.2
20260510035542 5 169 0.0 0.0 0.00 0.00 0.00 100 1017.4
20260510035221 5 170 0.0 0.0 0.00 0.00 0.00 100 1017.3
20260510035121 5 170 0.0 0.0 0.00 0.00 0.00 100 1017.2
20260510035029 5 170 0.0 0.0 0.00 0.00 0.00 100 1017.2
20260510035021 5 170 0.0 0.0 0.00 0.00 0.00 100 1017.6
20260510034921 5 170 0.0 0.0 0.00 0.00 0.00 100 1017.3
20260510034822 5 170 0.0 0.0 0.00 0.00 0.00 100 1017.4
20260510034722 5 170 0.0 0.0 0.00 0.00 0.00 100 1017.4
20260510034621 5 170 0.0 0.0 0.00 0.00 0.00 100 1017.4
20260510034529 5 170 0.0 0.0 0.00 0.00 0.00 100 1017.4
20260510034521 5 170 0.0 0.0 0.00 0.00 0.00 100 1017.3
20260510034421 5 171 0.0 0.0 0.00 0.00 0.00 100 1017.3
20260510034329 5 170 0.0 0.0 0.00 0.00 0.00 100 1017.3
20260510034324 5 170 0.0 0.0 0.00 0.00 0.00 100 1017.4
20260510034308 5 170 0.0 0.0 0.00 0.00 0.00 100 1017.5
20260510034252 5 170 0.0 0.0 0.00 0.00 0.00 100 1017.3
20260510034021 5 170 0.0 0.0 0.00 0.00 0.00 100 1017.2
20260510033920 5 170 0.0 0.0 0.00 0.00 0.00 100 1017.3
20260510033821 4 171 0.0 0.0 0.00 0.00 0.00 100 1017.5
20260510033804 4 170 0.0 0.0 0.00 0.00 0.00 100 1017.5
20260510033748 4 171 0.0 0.0 0.00 0.00 0.00 100 1017.6
20260510033732 4 171 0.0 0.0 0.00 0.00 0.00 100 1017.6
20260510033456 4 171 0.0 0.0 0.00 0.00 0.00 100 1017.4
20260510033440 4 171 0.0 0.0 0.00 0.00 0.00 100 1017.5
20260510033121 4 171 0.0 0.0 0.00 0.00 0.00 100 1017.6
20260510033029 4 171 0.0 0.0 0.00 0.00 0.00 100 1017.6
20260510033021 4 171 0.0 0.0 0.00 0.00 0.00 100 1017.6
20260510032922 5 171 0.0 0.0 0.00 0.00 0.00 100 1017.5
20260510032821 5 171 0.0 0.0 0.00 0.00 0.00 100 1017.5
20260510032804 5 171 0.0 0.0 0.00 0.00 0.00 100 1017.3
20260510032749 5 171 0.0 0.0 0.00 0.00 0.00 100 1017.6
20260510032733 5 171 0.0 0.0 0.00 0.00 0.00 100 1017.6
20260510032422 5 171 0.0 0.0 0.00 0.00 0.00 100 1017.6
20260510032321 5 171 0.0 0.0 0.00 0.00 0.00 100 1017.4
20260510032221 5 171 0.0 0.0 0.00 0.00 0.00 100 1017.5
20260510032122 5 171 0.0 0.0 0.00 0.00 0.00 100 1017.6
20260510032029 5 171 0.0 0.0 0.00 0.00 0.00 100 1017.6
20260510032021 5 171 0.0 0.0 0.00 0.00 0.00 100 1017.3
20260510031921 5 171 0.0 0.0 0.00 0.00 0.00 100 1017.5
20260510031821 5 171 0.0 0.0 0.00 0.00 0.00 100 1017.6
20260510031721 5 171 0.0 0.0 0.00 0.00 0.00 100 1017.5
20260510031622 5 172 0.0 0.0 0.00 0.00 0.00 100 1017.4
20260510031529 5 171 0.0 0.0 0.00 0.00 0.00 100 1017.4
20260510031520 5 171 0.0 0.0 0.00 0.00 0.00 100 1017.5
20260510031421 5 172 0.0 0.0 0.00 0.00 0.00 100 1017.5
20260510031323 5 172 0.0 0.0 0.00 0.00 0.00 100 1017.4
20260510031220 5 172 0.0 0.0 0.00 0.00 0.00 100 1017.5
20260510031122 5 172 0.0 0.0 0.00 0.00 0.00 100 1017.5
20260510031105 5 172 0.0 0.0 0.00 0.00 0.00 100 1017.5
20260510031059 5 172 0.0 0.0 0.00 0.00 0.00 100 1017.6
20260510031042 5 172 0.0 0.0 0.00 0.00 0.00 100 1017.6
20260510030800 5 172 0.0 0.0 0.00 0.00 0.00 100 1017.7
20260510030744 5 172 0.0 0.0 0.00 0.00 0.00 100 1017.5
20260510030729 5 172 0.0 0.0 0.00 0.00 0.00 100 1017.5
20260510030722 5 172 0.0 0.0 0.00 0.00 0.00 100 1017.5
20260510030705 5 172 0.0 0.0 0.00 0.00 0.00 100 1017.4
20260510030428 5 172 0.0 0.0 0.00 0.00 0.00 100 1017.5
20260510030412 5 172 0.0 0.0 0.00 0.00 0.00 100 1017.6
20260510030354 5 172 0.0 0.0 0.00 0.00 0.00 100 1017.6
20260510025821 4 172 0.0 0.0 0.00 0.00 0.00 100 1017.7
20260510025804 4 172 0.0 0.0 0.00 0.00 0.00 100 1017.4
20260510025747 4 171 0.0 0.0 0.00 0.00 0.00 100 1017.4
20260510025731 4 172 0.0 0.0 0.00 0.00 0.00 100 1017.4
20260510025434 4 172 0.0 0.0 0.00 0.00 0.00 100 1017.5
20260510025419 4 172 0.0 0.0 0.00 0.00 0.00 100 1017.5
20260510025404 4 172 0.0 0.0 0.00 0.00 0.00 100 1017.4
20260510025120 4 172 0.0 0.0 0.00 0.00 0.00 100 1017.3
20260510025104 4 172 0.0 0.0 0.00 0.00 0.00 100 1017.4
20260510025050 4 172 0.0 0.0 0.00 0.00 0.00 100 1017.4
20260510025034 4 172 0.0 0.0 0.00 0.00 0.00 100 1017.4
20260510025018 4 172 0.0 0.0 0.00 0.00 0.00 100 1017.4
20260510025003 4 172 0.0 0.0 0.00 0.00 0.00 100 1017.4
20260510024209 4 172 0.0 0.0 0.00 0.00 0.00 100 1017.6
20260510024115 4 172 0.0 0.0 0.00 0.00 0.00 100 1017.4
20260510024058 4 172 0.0 0.0 0.00 0.00 0.00 100 1017.4
20260510024050 4 172 0.0 0.0 0.00 0.00 0.00 100 1017.5
20260510024035 4 172 0.0 0.0 0.00 0.00 0.00 100 1017.8
20260510023711 4 172 0.0 0.0 0.00 0.00 0.00 100 1017.5
20260510023608 4 172 0.0 0.0 0.00 0.00 0.00 100 1017.8
20260510023530 4 172 0.0 0.0 0.00 0.00 0.00 100 1017.8
20260510023509 4 172 0.0 0.0 0.00 0.00 0.00 100 1017.4
20260510023409 4 172 0.0 0.0 0.00 0.00 0.00 100 1017.5
20260510023343 4 172 0.0 0.0 0.00 0.00 0.00 100 1017.4
20260510023328 4 172 0.0 0.0 0.00 0.00 0.00 100 1017.4
20260510023031 4 172 0.0 0.0 0.00 0.00 0.00 100 1017.3
20260510023010 4 172 0.0 0.0 0.00 0.00 0.00 100 1017.4
20260510022910 4 172 0.0 0.0 0.00 0.00 0.00 100 1017.4
20260510022849 3 172 0.0 0.0 0.00 0.00 0.00 100 1017.4
20260510022844 3 172 0.0 0.0 0.00 0.00 0.00 100 1017.6
20260510022840 4 172 0.0 0.0 0.00 0.00 0.00 100 1017.7
20260510022832 3 172 0.0 0.0 0.00 0.00 0.00 100 1017.4
20260510022817 3 172 0.0 0.0 0.00 0.00 0.00 100 1017.7
20260510022801 3 172 0.0 0.0 0.00 0.00 0.00 100 1017.4
20260510022535 3 172 0.0 0.0 0.00 0.00 0.00 100 1017.4
20260510022518 3 172 0.0 0.0 0.00 0.00 0.00 100 1017.5
20260510022501 3 172 0.0 0.0 0.00 0.00 0.00 100 1017.5
20260510022444 3 172 0.0 0.0 0.00 0.00 0.00 100 1017.7
20260510022429 3 172 0.0 0.0 0.00 0.00 0.00 100 1017.6
20260510022200 3 172 0.0 0.0 0.00 0.00 0.00 100 1017.6
20260510022144 3 172 0.0 0.0 0.00 0.00 0.00 100 1017.6
20260510021909 4 172 0.0 0.0 0.00 0.00 0.00 100 1017.7
20260510021855 4 172 0.0 0.0 0.00 0.00 0.00 100 1017.7
20260510021629 4 172 0.0 0.0 0.00 0.00 0.00 100 1017.7
20260510021309 4 172 0.0 0.0 0.00 0.00 0.00 100 1017.6
20260510021210 4 172 0.0 0.0 0.00 0.00 0.00 100 1017.8
20260510021110 4 172 0.0 0.0 0.00 0.00 0.00 100 1017.6
20260510021054 4 172 0.0 0.0 0.00 0.00 0.00 100 1017.6
20260510021046 4 172 0.0 0.0 0.00 0.00 0.00 100 1017.8
20260510021030 4 172 0.0 0.0 0.00 0.00 0.00 100 1017.7
20260510020708 4 172 0.0 0.0 0.00 0.00 0.00 100 1017.7
20260510020609 4 172 0.0 0.0 0.00 0.00 0.00 100 1017.5
20260510020529 4 172 0.0 0.0 0.00 0.00 0.00 100 1017.5
20260510020517 4 172 0.0 0.0 0.00 0.00 0.00 100 1017.7
20260510020512 3 172 0.0 0.0 0.00 0.00 0.00 100 1017.7
20260510020501 3 172 0.0 0.0 0.00 0.00 0.00 100 1017.7
20260510020451 3 172 0.0 0.0 0.00 0.00 0.00 100 1017.5
20260510020435 3 172 0.0 0.0 0.00 0.00 0.00 100 1017.7
20260510020418 3 172 0.0 0.0 0.00 0.00 0.00 100 1017.7
20260510020402 3 172 0.0 0.0 0.00 0.00 0.00 100 1017.7
20260510020133 3 172 0.0 0.0 0.00 0.00 0.00 100 1017.6
20260510020118 3 172 0.0 0.0 0.00 0.00 0.00 100 1017.7
20260510015610 4 172 0.0 0.0 0.00 0.00 0.00 100 1017.9
20260510015602 4 172 0.0 0.0 0.00 0.00 0.00 100 1017.8
20260510015548 4 172 0.0 0.0 0.00 0.00 0.00 100 1017.8
20260510015323 4 172 0.0 0.0 0.00 0.00 0.00 100 1017.7
20260510015307 4 172 0.0 0.0 0.00 0.00 0.00 100 1017.9
20260510015251 4 172 0.0 0.0 0.00 0.00 0.00 100 1017.7
20260510015009 4 172 0.0 0.0 0.00 0.00 0.00 100 1017.7
20260510014910 4 172 0.0 0.0 0.00 0.00 0.00 100 1017.9
20260510014824 4 172 0.0 0.0 0.00 0.00 0.00 100 1017.8
20260510014819 4 172 0.0 0.0 0.00 0.00 0.00 100 1017.8
20260510014803 4 172 0.0 0.0 0.00 0.00 0.00 100 1017.8
20260510014747 4 172 0.0 0.0 0.00 0.00 0.00 100 1017.8
20260510014509 4 172 0.0 0.0 0.00 0.00 0.00 100 1017.7
20260510014408 4 172 0.0 0.0 0.00 0.00 0.00 100 1018.0
20260510014309 4 172 0.0 0.0 0.00 0.00 0.00 100 1017.8
20260510014209 4 172 0.0 0.0 0.00 0.00 0.00 100 1017.9
20260510014110 4 172 0.0 0.0 0.00 0.00 0.00 100 1017.6
20260510014029 4 172 0.0 0.0 0.00 0.00 0.00 100 1017.6
20260510014009 4 172 0.0 0.0 0.00 0.00 0.00 100 1017.8
20260510013908 4 172 0.0 0.0 0.00 0.00 0.00 100 1017.6
20260510013757 4 172 0.0 0.0 0.00 0.00 0.00 100 1017.8
20260510013738 4 172 0.0 0.0 0.00 0.00 0.00 100 1017.9
20260510013710 4 172 0.0 0.0 0.00 0.00 0.00 100 1017.8
20260510013434 4 172 0.0 0.0 0.00 0.00 0.00 100 1017.6
20260510013418 4 172 0.0 0.0 0.00 0.00 0.00 100 1017.7
20260510013127 4 172 0.0 0.0 0.00 0.00 0.00 100 1017.6
20260510013118 4 172 0.0 0.0 0.00 0.00 0.00 100 1018.0
20260510012757 4 172 0.0 0.0 0.00 0.00 0.00 100 1017.8
20260510012658 4 172 0.0 0.0 0.00 0.00 0.00 100 1017.8
20260510012529 4 172 0.0 0.0 0.00 0.00 0.00 100 1017.9
20260510012457 4 172 0.0 0.0 0.00 0.00 0.00 100 1017.9
20260510012357 4 172 0.0 0.0 0.00 0.00 0.00 100 1017.9
20260510012257 5 172 0.0 0.0 0.00 0.00 0.00 100 1018.0
20260510012158 5 172 0.0 0.0 0.00 0.00 0.00 100 1017.8
20260510012029 5 172 0.0 0.0 0.00 0.00 0.00 100 1017.7
20260510011956 5 172 0.0 0.0 0.00 0.00 0.00 100 1017.8
20260510011858 5 172 0.0 0.0 0.00 0.00 0.00 100 1017.8
20260510011757 5 172 0.0 0.0 0.00 0.00 0.00 100 1017.7
20260510011657 5 172 0.0 0.0 0.00 0.00 0.00 100 1017.8
20260510011626 5 172 0.0 0.0 0.00 0.00 0.00 100 1018.2
20260510011617 5 172 0.0 0.0 0.00 0.00 0.00 100 1017.7
20260510011259 5 172 0.0 0.0 0.00 0.00 0.00 100 1017.7
20260510011244 5 172 0.0 0.0 0.00 0.00 0.00 100 1017.9
20260510011212 5 172 0.0 0.0 0.00 0.00 0.00 100 1018.0
20260510010859 5 172 0.0 0.0 0.00 0.00 0.00 100 1017.6
20260510010757 5 172 0.0 0.0 0.00 0.00 0.00 100 1018.0
20260510010656 5 172 0.0 0.0 0.00 0.00 0.00 100 1018.0
20260510010529 5 172 0.0 0.0 0.00 0.00 0.00 100 1018.0
20260510010445 5 172 0.0 0.0 0.00 0.00 0.00 100 1017.8
20260510010345 5 172 0.0 0.0 0.00 0.00 0.00 100 1017.8
20260510010244 5 172 0.0 0.0 0.00 0.00 0.00 100 1018.0
20260510010145 5 172 0.0 0.0 0.00 0.00 0.00 100 1018.0
20260510010029 5 172 0.0 0.0 0.00 0.00 0.00 100 1018.1
20260510010013 5 172 0.0 0.0 0.00 0.00 0.00 100 1017.9
20260510005953 5 172 0.0 0.0 0.00 0.00 0.00 100 1017.9
20260510005633 5 172 0.0 0.0 0.00 0.00 0.00 100 1017.9
20260510005532 5 172 0.0 0.0 0.00 0.00 0.00 100 1017.8
20260510005433 5 172 0.0 0.0 0.00 0.00 0.00 100 1018.1
20260510005333 5 172 0.0 0.0 0.00 0.00 0.00 100 1017.9
20260510005234 5 172 0.0 0.0 0.00 0.00 0.00 100 1017.8
20260510005133 5 172 0.0 0.0 0.00 0.00 0.00 100 1017.7
20260510005030 5 172 0.0 0.0 0.00 0.00 0.00 100 1018.0
20260510004215 5 172 0.0 0.0 0.00 0.00 0.00 100 1018.1
20260510004116 5 172 0.0 0.0 0.00 0.00 0.00 100 1018.0
20260510004103 5 172 0.0 0.0 0.00 0.00 0.00 100 1018.0
20260510004051 5 172 0.0 0.0 0.00 0.00 0.00 100 1017.8
20260510004036 5 172 0.0 0.0 0.00 0.00 0.00 100 1017.7
20260510003715 5 172 0.0 0.0 0.00 0.00 0.00 100 1018.1
20260510003658 5 172 0.0 0.0 0.00 0.00 0.00 100 1018.1
20260510003647 5 172 0.0 0.0 0.00 0.00 0.00 100 1018.1
20260510003635 5 172 0.0 0.0 0.00 0.00 0.00 100 1017.9
20260510003315 5 172 0.0 0.0 0.00 0.00 0.00 100 1018.1
20260510003214 5 172 0.0 0.0 0.00 0.00 0.00 100 1018.1
20260510003115 5 172 0.0 0.0 0.00 0.00 0.00 100 1018.2
20260510003100 5 172 0.0 0.0 0.00 0.00 0.00 100 1018.2
20260510003015 5 172 0.0 0.0 0.00 0.00 0.00 100 1018.1
20260510002955 5 172 0.0 0.0 0.00 0.00 0.00 100 1018.0
20260510002939 5 172 0.0 0.0 0.00 0.00 0.00 100 1018.0
20260510002924 6 172 0.0 0.0 0.00 0.00 0.00 100 1018.0
20260510002652 6 172 0.0 0.0 0.00 0.00 0.00 100 1018.1
20260510002641 6 172 0.0 0.0 0.00 0.00 0.00 100 1018.0
20260510002624 6 172 0.0 0.0 0.00 0.00 0.00 100 1018.1
20260510002607 6 172 0.0 0.0 0.00 0.00 0.00 100 1018.2
20260510002332 6 172 0.0 0.0 0.00 0.00 0.00 100 1018.2
20260510002319 6 172 0.0 0.0 0.00 0.00 0.00 100 1018.2
20260510002255 6 171 0.0 0.0 0.00 0.00 0.00 100 1018.2
20260510002239 6 171 0.0 0.0 0.00 0.00 0.00 100 1018.1
20260510002003 6 172 0.0 0.0 0.00 0.00 0.00 100 1018.2
20260510001725 6 172 0.0 0.0 0.00 0.00 0.00 100 1018.4
20260510001714 6 172 0.0 0.0 0.00 0.00 0.00 100 1018.2
20260510001658 6 172 0.0 0.0 0.00 0.00 0.00 100 1018.3
20260510001125 6 172 0.0 0.0 0.00 0.00 0.00 100 1018.2
20260510001111 6 172 0.0 0.0 0.00 0.00 0.00 100 1018.2
20260510001015 6 172 0.0 0.0 0.00 0.00 0.00 100 1018.1
20260510000916 6 172 0.0 0.0 0.00 0.00 0.00 100 1018.2
20260510000848 6 172 0.0 0.0 0.00 0.00 0.00 100 1018.1
20260510000832 6 172 0.0 0.0 0.00 0.00 0.00 100 1018.1
20260510000816 6 172 0.0 0.0 0.00 0.00 0.00 100 1018.2
20260510000804 6 172 0.0 0.0 0.00 0.00 0.00 100 1018.2
20260510000754 6 172 0.0 0.0 0.00 0.00 0.00 100 1018.1
20260510000215 6 172 0.0 0.0 0.00 0.00 0.00 100 1018.3
20260510000116 6 172 0.0 0.0 0.00 0.00 0.00 100 1018.2
20260510000052 6 172 0.0 0.0 0.00 0.00 0.00 100 1018.3
20260510000036 5 172 0.0 0.0 0.00 0.00 0.00 100 1018.3
20260509235715 5 172 0.0 0.0 0.00 0.00 0.00 100 1018.3
20260509235616 5 172 0.0 0.0 0.00 0.00 0.00 100 1018.5
20260509235559 5 172 0.0 0.0 0.00 0.00 0.00 100 1018.5
20260509235516 5 172 0.0 0.0 0.00 0.00 0.00 100 1018.4
20260509235416 5 172 0.0 0.0 0.00 0.00 0.00 100 1018.1
20260509235316 5 172 0.0 0.0 0.00 0.00 0.00 100 1018.3
20260509235215 5 172 0.0 0.0 0.00 0.00 0.00 100 1018.2
20260509235115 5 172 0.0 0.0 0.00 0.00 0.00 100 1018.4
20260509235100 5 172 0.0 0.0 0.00 0.00 0.00 100 1018.4
20260509235017 5 172 0.0 0.0 0.00 0.00 0.00 100 1018.3
20260509234915 5 172 0.0 0.0 0.00 0.00 0.00 100 1018.3
20260509234816 5 172 0.0 0.0 0.00 0.00 0.00 100 1018.3
20260509234715 5 172 0.0 0.0 0.00 0.00 0.00 100 1018.3
20260509234616 5 172 0.0 0.0 0.00 0.00 0.00 100 1018.3
20260509234559 5 172 0.0 0.0 0.00 0.00 0.00 100 1018.3
20260509234515 5 172 0.0 0.0 0.00 0.00 0.00 100 1018.5
20260509234453 5 172 0.0 0.0 0.00 0.00 0.00 100 1018.3
20260509234437 5 172 0.0 0.0 0.00 0.00 0.00 100 1018.3
20260509234421 5 172 0.0 0.0 0.00 0.00 0.00 100 1018.5
20260509234406 5 172 0.0 0.0 0.00 0.00 0.00 100 1018.3
20260509234351 5 172 0.0 0.0 0.00 0.00 0.00 100 1018.3
20260509233837 6 172 0.0 0.0 0.00 0.00 0.00 100 1018.4
20260509233830 5 172 0.0 0.0 0.00 0.00 0.00 100 1018.3
20260509233815 5 172 0.0 0.0 0.00 0.00 0.00 100 1018.3
20260509233759 5 172 0.0 0.0 0.00 0.00 0.00 100 1018.3
20260509233748 5 172 0.0 0.0 0.00 0.00 0.00 100 1018.3
20260509233737 5 172 0.0 0.0 0.00 0.00 0.00 100 1018.2
20260509233721 5 172 0.0 0.0 0.00 0.00 0.00 100 1018.4
20260509233445 5 172 0.0 0.0 0.00 0.00 0.00 100 1018.2
20260509233428 6 172 0.0 0.0 0.00 0.00 0.00 100 1018.4
20260509233415 6 172 0.0 0.0 0.00 0.00 0.00 100 1018.4
20260509233143 6 172 0.0 0.0 0.00 0.00 0.00 100 1018.4
20260509233128 6 172 0.0 0.0 0.00 0.00 0.00 100 1018.3
20260509232636 6 172 0.0 0.0 0.00 0.00 0.00 100 1018.4
20260509232626 6 172 0.0 0.0 0.00 0.00 0.00 100 1018.5
20260509232610 6 172 0.0 0.0 0.00 0.00 0.00 100 1018.3
20260509232553 6 172 0.0 0.0 0.00 0.00 0.00 100 1018.4
20260509232538 6 172 0.0 0.0 0.00 0.00 0.00 100 1018.5
20260509232016 6 172 0.0 0.0 0.00 0.00 0.00 100 1018.4
20260509231915 6 172 0.0 0.0 0.00 0.00 0.00 100 1018.3
20260509231815 6 172 0.0 0.0 0.00 0.00 0.00 100 1018.5
20260509231716 6 172 0.0 0.0 0.00 0.00 0.00 100 1018.3
20260509231657 6 172 0.0 0.0 0.00 0.00 0.00 100 1018.5
20260509231645 6 172 0.0 0.0 0.00 0.00 0.00 100 1018.5
20260509231635 6 172 0.0 0.0 0.00 0.00 0.00 100 1018.3
20260509231351 6 172 0.0 0.0 0.00 0.00 0.00 100 1018.2
20260509231336 6 172 0.0 0.0 0.00 0.00 0.00 100 1018.4
20260509231100 6 172 0.0 0.0 0.00 0.00 0.00 100 1018.5
20260509231015 6 172 0.0 0.0 0.00 0.00 0.00 100 1018.7
20260509230950 6 172 0.0 0.0 0.00 0.00 0.00 100 1018.4
20260509230934 6 172 0.0 0.0 0.00 0.00 0.00 100 1018.5
20260509230615 6 172 0.0 0.0 0.00 0.00 0.00 100 1018.7
20260509230537 6 172 0.0 0.0 0.00 0.00 0.00 100 1018.7
20260509230521 6 172 0.0 0.0 0.00 0.00 0.00 100 1018.8
20260509230506 6 172 0.0 0.0 0.00 0.00 0.00 100 1018.7
20260509230230 6 172 0.0 0.0 0.00 0.00 0.00 100 1018.4
20260509230219 6 172 0.0 0.0 0.00 0.00 0.00 100 1018.4
20260509230208 6 172 0.0 0.0 0.00 0.00 0.00 100 1018.7
20260509230154 6 172 0.0 0.0 0.00 0.00 0.00 100 1018.7
20260509225917 6 172 0.0 0.0 0.00 0.00 0.00 100 1018.5
20260509225646 6 172 0.0 0.0 0.00 0.00 0.00 100 1018.8
20260509225636 6 172 0.0 0.0 0.00 0.00 0.00 100 1018.7
20260509225353 6 171 0.0 0.0 0.00 0.00 0.00 100 1018.7
20260509225343 6 172 0.0 0.0 0.00 0.00 0.00 100 1018.8
20260509225327 6 172 0.0 0.0 0.00 0.00 0.00 100 1018.5
20260509225312 6 172 0.0 0.0 0.00 0.00 0.00 100 1018.8
20260509225300 6 172 0.0 0.0 0.00 0.00 0.00 100 1018.8
20260509225247 6 172 0.0 0.0 0.00 0.00 0.00 100 1018.9
20260509225231 6 172 0.0 0.0 0.00 0.00 0.00 100 1018.7
20260509225215 6 172 0.0 0.0 0.00 0.00 0.00 100 1018.7
20260509225200 6 172 0.0 0.0 0.00 0.00 0.00 100 1018.8
20260509224928 6 172 0.0 0.0 0.00 0.00 0.00 100 1018.7
20260509224918 6 172 0.0 0.0 0.00 0.00 0.00 100 1018.9
20260509224902 6 172 0.0 0.0 0.00 0.00 0.00 100 1018.7
20260509224845 6 171 0.0 0.0 0.00 0.00 0.00 100 1018.9
20260509224829 6 171 0.0 0.0 0.00 0.00 0.00 100 1019.0
20260509223815 6 171 0.0 0.0 0.00 0.00 0.00 100 1018.5
20260509223716 6 171 0.0 0.0 0.00 0.00 0.00 100 1018.7
20260509223626 6 171 0.0 0.0 0.00 0.00 0.00 100 1018.8
20260509223614 6 171 0.0 0.0 0.00 0.00 0.00 100 1018.8
20260509223554 6 173 0.0 0.0 0.00 0.00 0.00 99 1019.0
20260509223545 6 172 0.0 0.0 0.00 0.00 0.00 100 1018.7
20260509223530 6 172 0.0 0.0 0.00 0.00 0.00 100 1018.9
20260509223514 6 172 0.0 0.0 0.00 0.00 0.00 100 1018.5
20260509223253 6 173 0.0 0.0 0.00 0.00 0.00 99 1018.9
20260509223243 6 172 0.0 0.0 0.00 0.00 0.00 100 1018.8
20260509223227 6 173 0.0 0.0 0.00 0.00 0.00 100 1018.9
20260509223216 6 173 0.0 0.0 0.00 0.00 0.00 100 1018.9
20260509223203 6 173 0.0 0.0 0.00 0.00 0.00 100 1018.8
20260509223148 6 173 0.0 0.0 0.00 0.00 0.00 100 1018.5
20260509223133 6 173 0.0 0.0 0.00 0.00 0.00 100 1018.5
20260509222856 6 173 0.0 0.0 0.00 0.00 0.00 99 1019.0
20260509222630 6 173 0.0 0.0 0.00 0.00 0.00 99 1018.9
20260509222613 6 173 0.0 0.0 0.00 0.00 0.00 99 1018.9
20260509222557 6 173 0.0 0.0 0.00 0.00 0.00 99 1018.8
20260509222542 6 173 0.0 0.0 0.00 0.00 0.00 99 1018.9
20260509222525 6 173 0.0 0.0 0.00 0.00 0.00 99 1018.9
20260509222036 6 173 0.0 0.0 0.00 0.00 0.00 99 1018.8
20260509222018 6 173 0.0 0.0 0.00 0.00 0.00 99 1018.7
20260509222002 6 173 0.0 0.0 0.00 0.00 0.00 99 1018.8
20260509221730 6 173 0.0 0.0 0.00 0.00 0.00 99 1019.0
20260509221452 6 173 0.0 0.0 0.00 0.00 0.00 99 1018.8
20260509221435 6 173 0.0 0.0 0.00 0.00 0.00 99 1019.0
20260509221128 6 173 0.0 0.0 0.00 0.00 0.00 99 1019.1
20260509221117 6 173 0.0 0.0 0.00 0.00 0.00 99 1019.1
20260509221051 6 173 0.0 0.0 0.00 0.00 0.00 99 1018.9
20260509221035 6 173 0.0 0.0 0.00 0.00 0.00 99 1018.9
20260509220715 6 173 0.0 0.0 0.00 0.00 0.00 99 1019.0
20260509220617 7 173 0.0 0.0 0.00 0.00 0.00 99 1018.9
20260509220600 7 173 0.0 0.0 0.00 0.00 0.00 99 1018.9
20260509220515 7 173 0.0 0.0 0.00 0.00 0.00 99 1018.9
20260509220415 7 173 0.0 0.0 0.00 0.00 0.00 99 1019.2
20260509220315 7 173 0.0 0.0 0.00 0.00 0.00 99 1019.0
20260509220215 7 173 0.0 0.0 0.00 0.00 0.00 99 1018.9
20260509220123 7 173 0.0 0.0 0.00 0.00 0.00 99 1019.0
20260509220112 7 173 0.0 0.0 0.00 0.00 0.00 99 1019.0
20260509220015 7 173 0.0 0.0 0.00 0.00 0.00 99 1018.8
20260509215915 7 173 0.0 0.0 0.00 0.00 0.00 99 1019.1
20260509215816 6 173 0.0 0.0 0.00 0.00 0.00 99 1019.0
20260509215714 6 173 0.0 0.0 0.00 0.00 0.00 99 1018.9
20260509215615 6 173 0.0 0.0 0.00 0.00 0.00 99 1019.1
20260509215559 6 173 0.0 0.0 0.00 0.00 0.00 99 1019.1
20260509215514 6 173 0.0 0.0 0.00 0.00 0.00 99 1019.1
20260509215415 6 173 0.0 0.0 0.00 0.00 0.00 99 1019.2
20260509215315 6 173 0.0 0.0 0.00 0.00 0.00 99 1019.1
20260509215215 7 173 0.0 0.0 0.00 0.00 0.00 99 1019.0
20260509215115 7 173 0.0 0.0 0.00 0.00 0.00 99 1019.1
20260509215100 7 173 0.0 0.0 0.00 0.00 0.00 99 1019.1
20260509215016 7 173 0.0 0.0 0.00 0.00 0.00 99 1019.1
20260509214915 7 173 0.0 0.0 0.00 0.00 0.00 99 1019.1
20260509214816 7 173 0.0 0.0 0.00 0.00 0.00 99 1019.0
20260509214716 7 173 0.0 0.0 0.00 0.00 0.00 99 1019.1
20260509214615 7 173 0.0 0.0 0.00 0.00 0.00 99 1019.3
20260509214559 7 173 0.0 0.0 0.00 0.00 0.00 99 1019.3
20260509214515 7 172 0.0 0.0 0.00 0.00 0.00 99 1019.3
20260509214453 7 173 0.0 0.0 0.00 0.00 0.00 98 1019.1
20260509214436 7 173 0.0 0.0 0.00 0.00 0.00 98 1018.9
20260509214116 7 172 0.0 0.0 0.00 0.00 0.00 98 1019.1
20260509214100 7 172 0.0 0.0 0.00 0.00 0.00 98 1019.1
20260509214015 7 172 0.0 0.0 0.00 0.00 0.00 98 1019.0
20260509213915 7 172 0.0 0.0 0.00 0.00 0.00 98 1018.9
20260509213815 7 172 0.0 0.0 0.00 0.00 0.00 98 1019.1
20260509213715 7 172 0.0 0.0 0.00 0.00 0.00 98 1019.0
20260509213615 7 172 0.0 0.0 0.00 0.00 0.00 98 1019.1
20260509213601 7 172 0.0 0.0 0.00 0.00 0.00 98 1019.1
20260509213551 7 172 0.0 0.0 0.00 0.00 0.00 98 1019.0
20260509213534 7 172 0.0 0.0 0.00 0.00 0.00 98 1018.9
20260509213215 7 172 0.0 0.0 0.00 0.00 0.00 97 1019.0
20260509213116 7 173 0.0 0.0 0.00 0.00 0.00 97 1019.1
20260509213059 7 173 0.0 0.0 0.00 0.00 0.00 97 1019.1
20260509213015 7 173 0.0 0.0 0.00 0.00 0.00 97 1019.1
20260509212915 7 173 0.0 0.0 0.00 0.00 0.00 97 1019.0
20260509212816 7 173 0.0 0.0 0.00 0.00 0.00 97 1019.2
20260509212758 7 173 0.0 0.0 0.00 0.00 0.00 97 1019.0
20260509212742 7 173 0.0 0.0 0.00 0.00 0.00 97 1018.9
20260509212730 7 173 0.0 0.0 0.00 0.00 0.00 97 1018.9
20260509212416 7 173 0.0 0.0 0.00 0.00 0.00 97 1019.0
20260509212315 7 173 0.0 0.0 0.00 0.00 0.00 97 1019.1
20260509212215 7 173 0.0 0.0 0.00 0.00 0.00 97 1018.8
20260509212115 7 173 0.0 0.0 0.00 0.00 0.00 96 1019.0
20260509212052 7 173 0.0 0.0 0.00 0.00 0.00 96 1019.0
20260509212007 7 173 0.0 0.0 0.00 0.00 0.00 96 1019.1
20260509211939 7 173 0.0 0.0 0.00 0.00 0.00 96 1019.0
20260509211931 7 173 0.0 0.0 0.00 0.00 0.00 96 1019.1
20260509211913 7 173 0.0 0.0 0.00 0.00 0.00 96 1019.2
20260509211857 7 173 0.0 0.0 0.00 0.00 0.00 96 1019.1
20260509211830 7 173 0.0 0.0 0.00 0.00 0.00 96 1019.1
20260509211820 7 173 0.0 0.0 0.00 0.00 0.00 96 1019.1
20260509211323 7 173 0.0 0.0 0.00 0.00 0.00 96 1019.1
20260509211307 7 173 0.0 0.0 0.00 0.00 0.00 96 1019.0
20260509211005 7 172 0.0 0.0 0.00 0.00 0.00 96 1019.1
20260509210905 7 172 0.0 0.0 0.00 0.00 0.00 96 1018.9
20260509210840 7 172 0.0 0.0 0.00 0.00 0.00 95 1019.3
20260509210831 7 172 0.0 0.0 0.00 0.00 0.00 96 1018.9
20260509210815 7 172 0.0 0.0 0.00 0.00 0.00 96 1019.1
20260509210746 7 172 0.0 0.0 0.00 0.00 0.00 96 1019.1
20260509210518 7 172 0.0 0.0 0.00 0.00 0.00 95 1019.2
20260509210501 7 172 0.0 0.0 0.00 0.00 0.00 95 1019.2
20260509210446 7 172 0.0 0.0 0.00 0.00 0.00 95 1019.2
20260509210429 7 172 0.0 0.0 0.00 0.00 0.00 95 1019.3
20260509210200 7 172 0.0 0.0 0.00 0.00 0.00 95 1019.1
20260509205925 8 172 0.0 0.0 0.00 0.00 0.00 94 1018.9
20260509205605 8 173 0.0 0.0 0.00 0.00 0.00 94 1019.1
20260509205550 8 172 0.0 0.0 0.00 0.00 0.00 94 1019.1
20260509205504 8 172 0.0 0.0 0.00 0.00 0.00 94 1019.1
20260509205443 8 172 0.0 0.0 0.00 0.00 0.00 94 1019.1
20260509205426 8 172 0.0 0.0 0.00 0.00 0.00 94 1019.1
20260509205137 8 172 0.0 0.0 0.00 0.00 0.00 94 1019.2
20260509205125 8 172 0.0 0.0 0.00 0.00 0.00 94 1019.1
20260509204805 8 172 0.0 0.0 0.00 0.00 0.00 94 1019.2
20260509204706 8 172 0.0 0.0 0.00 0.00 0.00 94 1019.4
20260509204614 8 172 0.0 0.0 0.00 0.00 0.00 94 1019.3
20260509204555 8 172 0.0 0.0 0.00 0.00 0.00 94 1019.6
20260509204545 8 172 0.0 0.0 0.00 0.00 0.00 94 1019.3
20260509204527 8 172 0.0 0.0 0.00 0.00 0.00 94 1019.3
20260509204511 8 172 0.0 0.0 0.00 0.00 0.00 94 1019.2
20260509204455 8 172 0.0 0.0 0.00 0.00 0.00 94 1019.3
20260509204440 8 172 0.0 0.0 0.00 0.00 0.00 94 1019.3
20260509203941 8 172 0.0 0.0 0.00 0.00 0.00 94 1019.1
20260509203925 8 172 0.0 0.0 0.00 0.00 0.00 94 1019.0
20260509203549 8 172 0.0 0.0 0.00 0.00 0.00 94 1019.4
20260509203506 8 172 0.0 0.0 0.00 0.00 0.00 93 1019.2
20260509203411 8 172 0.0 0.0 0.00 0.00 0.00 93 1019.1
20260509203356 8 172 0.0 0.0 0.00 0.00 0.00 93 1019.4
20260509203340 8 172 0.0 0.0 0.00 0.00 0.00 93 1019.2
20260509203109 8 172 0.0 0.0 0.00 0.00 0.00 93 1019.3
20260509203005 8 172 0.0 0.0 0.00 0.00 0.00 93 1019.2
20260509202907 8 172 0.0 0.0 0.00 0.00 0.00 93 1019.2
20260509202806 8 172 0.0 0.0 0.00 0.00 0.00 93 1019.2
20260509202706 8 172 0.0 0.0 0.00 0.00 0.00 93 1019.2
20260509202549 8 172 0.0 0.0 0.00 0.00 0.00 93 1019.5
20260509202505 8 172 0.0 0.0 0.00 0.00 0.00 92 1019.2
20260509202440 9 172 0.0 0.0 0.00 0.00 0.00 90 1019.1
20260509202432 8 172 0.0 0.0 0.00 0.00 0.00 92 1019.6
20260509202417 8 172 0.0 0.0 0.00 0.00 0.00 92 1019.3
20260509202401 8 172 0.0 0.0 0.00 0.00 0.00 92 1019.0
20260509202332 8 172 0.0 0.0 0.00 0.00 0.00 92 1019.1
20260509202320 8 172 0.0 0.0 0.00 0.00 0.00 91 1019.0
20260509202306 8 172 0.0 0.0 0.00 0.00 0.00 91 1019.2
20260509202029 9 172 0.0 0.0 0.00 0.00 0.00 91 1019.3
20260509201506 9 172 0.0 0.0 0.00 0.00 0.00 90 1019.2
20260509201406 9 172 0.0 0.0 0.00 0.00 0.00 90 1019.2
20260509201306 9 172 0.0 0.0 0.00 0.00 0.00 90 1019.1
20260509201206 9 172 0.0 0.0 0.00 0.00 0.00 90 1019.1
20260509201054 9 172 0.0 0.0 0.00 0.00 0.00 90 1019.4
20260509201042 9 172 0.0 0.0 0.00 0.00 0.00 90 1019.2
20260509201026 9 172 0.0 0.0 0.00 0.00 0.00 90 1019.2
20260509200748 9 172 0.0 0.0 0.00 0.00 0.00 90 1019.2
20260509200721 9 172 0.0 0.0 0.00 0.00 0.00 90 1019.2
20260509200406 10 172 0.0 0.0 0.00 0.00 0.00 89 1019.4
20260509200305 10 172 0.0 0.0 0.00 0.00 0.00 89 1019.3
20260509200205 10 172 0.0 0.0 0.00 0.00 0.00 89 1018.9
20260509200006 10 172 0.0 0.0 0.00 0.00 0.00 89 1019.2
20260509195905 10 172 0.0 0.0 0.00 0.00 0.00 89 1019.2
20260509195805 10 172 0.0 0.0 0.00 0.00 0.00 89 1019.2
20260509195736 10 171 0.0 0.0 0.00 0.00 0.00 87 1019.2
20260509195726 10 172 0.0 0.0 0.00 0.00 0.00 88 1019.2
20260509195659 10 172 0.0 0.0 0.00 0.00 0.00 88 1019.2
20260509195647 10 172 0.0 0.0 0.00 0.00 0.00 88 1019.4
20260509195422 10 172 0.0 0.0 0.00 0.00 0.00 88 1019.1
20260509195407 10 171 0.0 0.0 0.00 0.00 0.00 88 1019.2
20260509195351 10 171 0.0 0.0 0.00 0.00 0.00 88 1019.2
20260509195323 10 171 0.0 0.0 0.00 0.00 0.00 88 1019.3
20260509195311 10 171 0.0 0.0 0.00 0.00 0.00 88 1019.2
20260509195255 10 171 0.0 0.0 0.00 0.00 0.00 88 1019.3
20260509195240 10 171 0.0 0.0 0.00 0.00 0.00 87 1019.2
20260509195224 10 171 0.0 0.0 0.00 0.00 0.00 87 1019.4
20260509195207 10 171 0.0 0.0 0.00 0.00 0.00 87 1019.2
20260509194720 10 169 0.0 0.0 0.00 0.00 0.00 87 1019.2
20260509194445 10 167 0.0 0.0 0.00 0.00 0.00 87 1019.4
20260509194417 10 167 0.0 0.0 0.00 0.00 0.00 87 1019.4
20260509194145 10 166 0.0 1.6 0.00 0.00 0.00 86 1019.1
20260509193635 10 162 0.0 1.6 0.00 0.00 0.00 86 1019.2
20260509193625 10 161 0.0 1.6 0.00 0.00 0.00 86 1019.3
20260509193340 10 159 0.0 1.6 0.00 0.00 0.00 86 1019.2
20260509193325 10 157 0.0 1.6 0.00 0.00 0.00 86 1019.3
20260509193049 10 160 0.0 0.0 0.00 0.00 0.00 86 1019.3
20260509193007 10 157 0.0 0.0 0.00 0.00 0.00 85 1019.1
20260509192905 10 157 0.0 0.0 0.00 0.00 0.00 85 1019.2
20260509192805 10 155 0.0 0.0 0.00 0.00 0.00 85 1019.3
20260509192706 10 163 0.0 1.6 0.00 0.00 0.00 85 1019.3
20260509192605 11 162 0.0 1.6 0.00 0.00 0.00 85 1019.3
20260509192551 11 160 0.0 1.6 0.00 0.00 0.00 85 1019.3
20260509192540 11 155 0.0 1.6 0.00 0.00 0.00 85 1019.0
20260509192526 11 149 0.0 1.6 0.00 0.00 0.00 84 1019.2
20260509192204 11 149 0.0 1.6 0.00 0.00 0.00 84 1019.3
20260509192049 11 147 0.0 1.6 0.00 0.00 0.00 84 1019.1
20260509192006 11 159 0.0 3.2 0.00 0.00 0.00 84 1019.2
20260509191905 11 158 0.0 3.2 0.00 0.00 0.00 84 1019.4
20260509191843 11 153 0.0 3.2 0.00 0.00 0.00 83 1019.3
20260509191836 11 140 0.0 3.2 0.00 0.00 0.00 84 1019.1
20260509191822 11 155 0.0 3.2 0.00 0.00 0.00 83 1019.4
20260509191806 11 155 0.0 3.2 0.00 0.00 0.00 83 1019.3
20260509191505 11 151 0.0 3.2 0.00 0.00 0.00 83 1019.3
20260509191447 11 157 0.0 3.2 0.00 0.00 0.00 83 1019.3
20260509191430 11 138 0.0 3.2 0.00 0.00 0.00 83 1019.3
20260509191152 11 72 1.6 3.2 0.00 0.00 0.00 83 1019.2
20260509191139 11 78 1.6 3.2 0.00 0.00 0.00 83 1019.2
20260509191126 11 137 0.0 3.2 0.00 0.00 0.00 83 1019.4
20260509190805 11 147 0.0 3.2 0.00 0.00 0.00 82 1019.3
20260509190705 11 124 0.0 3.2 0.00 0.00 0.00 82 1019.4
20260509190606 11 90 1.6 3.2 0.00 0.00 0.00 82 1019.2
20260509190554 11 84 1.6 3.2 0.00 0.00 0.00 82 1019.2
20260509190543 11 108 1.6 4.8 0.00 0.00 0.00 83 1019.3
20260509190528 11 106 1.6 4.8 0.00 0.00 0.00 83 1019.4
20260509190205 11 122 0.0 6.4 0.00 0.00 0.00 83 1019.4
20260509190104 11 119 0.0 6.4 0.00 0.00 0.00 82 1019.4
20260509190006 11 102 0.0 6.4 0.00 0.00 0.00 82 1019.3
20260509185906 11 76 0.0 6.4 0.00 0.00 0.00 82 1019.2
20260509185806 11 59 1.6 6.4 0.00 0.00 0.00 82 1019.0
20260509185704 11 83 0.0 6.4 0.00 0.00 0.00 82 1019.4
20260509185606 11 68 1.6 6.4 0.00 0.00 0.00 83 1019.1
20260509185550 11 59 1.6 6.4 0.00 0.00 0.00 83 1019.1
20260509185541 11 54 3.2 4.8 0.00 0.00 0.00 83 1019.1
20260509185533 11 108 0.0 6.4 0.00 0.00 0.00 83 1019.2
20260509185517 11 68 4.8 6.4 0.00 0.00 0.00 82 1019.3
20260509185501 11 63 1.6 6.4 0.00 0.00 0.00 83 1019.3
20260509185445 11 117 0.0 4.8 0.00 0.00 0.00 83 1019.1
20260509185429 11 123 0.0 4.8 0.00 0.00 0.00 83 1019.2
20260509185417 11 130 0.0 4.8 0.00 0.00 0.00 83 1019.2
20260509185404 11 96 0.0 4.8 0.00 0.00 0.00 83 1019.4
20260509185348 11 85 0.0 4.8 0.00 0.00 0.00 83 1019.4
20260509185332 11 86 0.0 4.8 0.00 0.00 0.00 83 1019.4
20260509185057 11 86 1.6 4.8 0.00 0.00 0.00 83 1019.1
20260509184305 11 61 0.0 4.8 0.00 0.00 0.00 83 1019.3
20260509184209 11 69 0.0 4.8 0.00 0.00 0.00 83 1019.1
20260509184142 11 108 1.6 4.8 0.00 0.00 0.00 83 1019.1
20260509184129 11 105 0.0 4.8 0.00 0.00 0.00 83 1019.2
20260509183805 11 130 0.0 4.8 0.00 0.00 0.00 83 1019.1
20260509183705 11 128 0.0 4.8 0.00 0.00 0.00 83 1019.4
20260509183549 11 104 0.0 4.8 0.00 0.00 0.00 83 1019.2
20260509183507 11 87 0.0 4.8 0.00 0.00 0.00 83 1019.3
20260509183405 11 129 0.0 4.8 0.00 0.00 0.00 83 1019.2
20260509183306 11 97 0.0 4.8 0.00 0.00 0.00 83 1019.1
20260509183205 11 114 0.0 4.8 0.00 0.00 0.00 83 1019.1
20260509183105 11 100 1.6 4.8 0.00 0.00 0.00 83 1019.2
20260509183050 11 125 0.0 4.8 0.00 0.00 0.00 83 1019.2
20260509183006 11 134 0.0 4.8 0.00 0.00 0.00 83 1019.1
20260509182906 11 124 0.0 4.8 0.00 0.00 0.00 82 1019.2
20260509182806 11 75 0.0 4.8 0.00 0.00 0.00 82 1019.1
20260509182705 11 127 1.6 3.2 0.00 0.00 0.00 82 1019.0
20260509182605 11 121 0.0 3.2 0.00 0.00 0.00 82 1019.1
20260509182550 11 115 0.0 3.2 0.00 0.00 0.00 82 1019.1
20260509182505 11 49 3.2 3.2 0.00 0.00 0.00 82 1019.1
20260509182405 11 146 0.0 1.6 0.00 0.00 0.00 82 1019.2
20260509182307 11 145 0.0 1.6 0.00 0.00 0.00 82 1019.1
20260509182205 11 134 0.0 3.2 0.00 0.00 0.00 82 1018.9
20260509182053 11 147 0.0 3.2 0.00 0.00 0.00 82 1019.1
20260509182041 11 131 0.0 3.2 0.00 0.00 0.00 82 1018.8
20260509182025 11 133 0.0 3.2 0.00 0.00 0.00 82 1019.3
20260509181705 11 151 0.0 3.2 0.00 0.00 0.00 82 1019.1
20260509181605 11 134 0.0 3.2 0.00 0.00 0.00 82 1019.1
20260509181549 11 133 0.0 3.2 0.00 0.00 0.00 82 1019.1
20260509181506 11 151 0.0 3.2 0.00 0.00 0.00 82 1019.1
20260509181405 11 132 0.0 3.2 0.00 0.00 0.00 81 1018.9
20260509181341 11 120 0.0 3.2 0.00 0.00 0.00 81 1019.1
20260509181325 11 128 0.0 1.6 0.00 0.00 0.00 81 1019.1
20260509181050 11 129 0.0 1.6 0.00 0.00 0.00 81 1018.9
20260509181006 11 141 0.0 1.6 0.00 0.00 0.00 81 1019.1
20260509180904 11 129 0.0 1.6 0.00 0.00 0.00 81 1019.2
20260509180842 11 120 0.0 1.6 0.00 0.00 0.00 81 1019.0
20260509180826 11 149 0.0 1.6 0.00 0.00 0.00 81 1019.1
20260509180549 11 144 0.0 1.6 0.00 0.00 0.00 81 1019.0
20260509180541 11 90 0.0 4.8 0.00 0.00 0.00 80 1019.0
20260509180533 11 112 0.0 1.6 0.00 0.00 0.00 81 1019.0
20260509180517 11 136 0.0 1.6 0.00 0.00 0.00 81 1019.0
20260509180502 11 163 0.0 1.6 0.00 0.00 0.00 81 1018.8
20260509180212 11 146 0.0 1.6 0.00 0.00 0.00 80 1019.1
20260509180159 11 146 0.0 1.6 0.00 0.00 0.00 80 1019.1
20260509180143 11 144 0.0 1.6 0.00 0.00 0.00 80 1019.2
20260509180127 11 157 0.0 4.8 0.00 0.00 0.00 80 1019.1
20260509175851 11 67 1.6 4.8 0.00 0.00 0.00 80 1019.0
20260509175625 11 161 0.0 4.8 0.00 0.00 0.00 80 1019.1
20260509175345 11 158 0.0 4.8 0.00 0.00 0.00 80 1019.1
20260509175328 11 136 0.0 4.8 0.00 0.00 0.00 80 1019.1
20260509175049 12 142 0.0 4.8 0.00 0.00 0.00 80 1019.1
20260509175005 12 121 0.0 4.8 0.00 0.00 0.00 80 1019.2
20260509174906 11 48 4.8 4.8 0.00 0.00 0.00 79 1019.1
20260509174840 12 138 0.0 3.2 0.00 0.00 0.00 79 1019.1
20260509174832 11 154 0.0 3.2 0.00 0.00 0.00 79 1019.3
20260509174816 11 131 0.0 3.2 0.00 0.00 0.00 79 1019.1
20260509174759 12 138 0.0 3.2 0.00 0.00 0.00 79 1019.1
20260509174441 12 105 0.0 3.2 0.00 0.00 0.00 79 1019.1
20260509174341 12 131 0.0 3.2 0.00 0.00 0.00 80 1018.9
20260509174243 12 161 0.0 3.2 0.00 0.00 0.00 79 1019.0
20260509174229 12 164 0.0 1.6 0.00 0.00 0.00 79 1019.0
20260509174218 12 160 0.0 3.2 0.00 0.00 0.00 79 1019.2
20260509174153 12 145 0.0 3.2 0.00 0.00 0.00 79 1019.0
20260509174138 12 158 0.0 3.2 0.00 0.00 0.00 79 1019.0
20260509174122 12 99 1.6 3.2 0.00 0.00 0.00 79 1019.0
20260509174106 12 160 0.0 1.6 0.00 0.00 0.00 79 1019.1
20260509174051 12 164 0.0 1.6 0.00 0.00 0.00 79 1019.1
20260509173603 12 163 0.0 1.6 0.00 0.00 0.00 79 1018.9
20260509173241 12 120 0.0 1.6 0.00 0.00 0.00 79 1019.0
20260509173142 12 146 0.0 1.6 0.00 0.00 0.00 79 1019.0
20260509173043 12 168 0.0 1.6 0.00 0.00 0.00 79 1019.0
20260509172940 12 177 0.0 1.6 0.00 0.00 0.00 78 1019.0
20260509172916 12 168 0.0 0.0 0.00 0.00 0.00 79 1019.1
20260509172907 12 178 0.0 1.6 0.00 0.00 0.00 78 1019.1
20260509172851 12 175 0.0 1.6 0.00 0.00 0.00 78 1019.2
20260509172835 12 171 0.0 1.6 0.00 0.00 0.00 78 1019.1
20260509172602 12 154 0.0 1.6 0.00 0.00 0.00 78 1018.8
20260509172546 12 154 0.0 1.6 0.00 0.00 0.00 78 1019.2
20260509172530 12 135 0.0 1.6 0.00 0.00 0.00 78 1018.9
20260509172514 12 156 0.0 1.6 0.00 0.00 0.00 78 1019.2
20260509172458 12 142 0.0 1.6 0.00 0.00 0.00 77 1019.0
20260509172433 12 141 0.0 1.6 0.00 0.00 0.00 78 1019.2
20260509172155 12 166 0.0 0.0 0.00 0.00 0.00 78 1019.1
20260509172140 12 161 0.0 0.0 0.00 0.00 0.00 78 1019.2
20260509172124 12 172 0.0 0.0 0.00 0.00 0.00 78 1019.1
20260509171637 12 167 0.0 0.0 0.00 0.00 0.00 78 1018.9
20260509171621 12 167 0.0 0.0 0.00 0.00 0.00 78 1018.9
20260509171605 12 173 0.0 1.6 0.00 0.00 0.00 78 1019.2
20260509171116 12 174 0.0 1.6 0.00 0.00 0.00 78 1018.9
20260509171100 12 173 0.0 1.6 0.00 0.00 0.00 78 1018.9
20260509170820 12 144 0.0 1.6 0.00 0.00 0.00 78 1018.8
20260509170816 12 169 0.0 0.0 0.00 0.00 0.00 78 1018.8
20260509170812 12 178 0.0 0.0 0.00 0.00 0.00 77 1018.8
20260509170804 12 173 0.0 1.6 0.00 0.00 0.00 78 1018.8
20260509170748 12 168 0.0 1.6 0.00 0.00 0.00 78 1019.0
20260509170725 12 159 0.0 1.6 0.00 0.00 0.00 78 1019.0
20260509170709 12 158 0.0 1.6 0.00 0.00 0.00 77 1018.9
20260509170652 12 128 0.0 1.6 0.00 0.00 0.00 77 1018.9
20260509170636 12 162 0.0 1.6 0.00 0.00 0.00 78 1018.8
20260509170621 12 162 0.0 1.6 0.00 0.00 0.00 78 1018.9
20260509170602 12 144 0.0 1.6 0.00 0.00 0.00 78 1018.8
20260509170338 12 153 0.0 1.6 0.00 0.00 0.00 77 1019.1
20260509170323 12 108 0.0 1.6 0.00 0.00 0.00 77 1018.9
20260509170044 12 175 0.0 0.0 0.00 0.00 0.00 78 1018.8
20260509170027 12 169 0.0 0.0 0.00 0.00 0.00 78 1018.8
20260509165801 12 167 0.0 0.0 0.00 0.00 0.00 78 1018.9
20260509165524 12 169 0.0 0.0 0.00 0.00 0.00 78 1019.0
20260509165508 12 180 0.0 0.0 0.00 0.00 0.00 77 1019.1
20260509164718 12 178 0.0 1.6 0.00 0.00 0.00 78 1018.8
20260509164617 12 176 0.0 1.6 0.00 0.00 0.00 77 1019.1
20260509164549 12 182 0.0 1.6 0.00 0.00 0.00 77 1019.1
20260509164520 12 179 0.0 1.6 0.00 0.00 0.00 77 1018.9
20260509164417 12 162 0.0 3.2 0.00 0.00 0.00 77 1018.9
20260509164316 12 80 0.0 3.2 0.00 0.00 0.00 77 1018.8
20260509164218 12 80 0.0 3.2 0.00 0.00 0.00 77 1018.8
20260509164117 12 168 0.0 3.2 0.00 0.00 0.00 77 1018.7
20260509164049 12 160 0.0 3.2 0.00 0.00 0.00 77 1018.7
20260509164015 12 146 0.0 3.2 0.00 0.00 0.00 77 1019.0
20260509163917 12 139 0.0 3.2 0.00 0.00 0.00 77 1019.0
20260509163816 12 139 0.0 3.2 0.00 0.00 0.00 77 1018.8
20260509163716 12 93 0.0 3.2 0.00 0.00 0.00 77 1019.0
20260509163618 12 78 1.6 3.2 0.00 0.00 0.00 77 1018.7
20260509163604 12 165 0.0 3.2 0.00 0.00 0.00 76 1018.7
20260509163555 12 150 0.0 3.2 0.00 0.00 0.00 76 1019.1
20260509163538 12 177 0.0 1.6 0.00 0.00 0.00 76 1018.9
20260509163221 12 159 0.0 1.6 0.00 0.00 0.00 76 1018.9
20260509163204 12 154 0.0 1.6 0.00 0.00 0.00 76 1019.0
20260509163147 12 132 0.0 1.6 0.00 0.00 0.00 76 1019.0
20260509163138 12 55 1.6 1.6 0.00 0.00 0.00 76 1019.0
20260509162817 12 139 0.0 1.6 0.00 0.00 0.00 76 1018.8
20260509162802 12 176 0.0 0.0 0.00 0.00 0.00 76 1018.9
20260509162753 12 157 0.0 1.6 0.00 0.00 0.00 76 1018.8
20260509162737 12 119 0.0 1.6 0.00 0.00 0.00 76 1019.0
20260509162724 12 169 0.0 0.0 0.00 0.00 0.00 76 1019.0
20260509162715 12 161 0.0 0.0 0.00 0.00 0.00 76 1018.9
20260509162659 12 112 0.0 0.0 0.00 0.00 0.00 76 1018.8
20260509162643 12 132 0.0 0.0 0.00 0.00 0.00 76 1019.0
20260509162407 12 179 0.0 0.0 0.00 0.00 0.00 76 1018.9
20260509162137 12 166 0.0 0.0 0.00 0.00 0.00 75 1019.0
20260509161817 12 179 0.0 0.0 0.00 0.00 0.00 76 1018.8
20260509161717 12 161 0.0 0.0 0.00 0.00 0.00 76 1019.2
20260509161617 12 167 0.0 0.0 0.00 0.00 0.00 76 1019.1
20260509161548 12 156 0.0 0.0 0.00 0.00 0.00 76 1019.1
20260509161516 12 175 0.0 0.0 0.00 0.00 0.00 76 1019.1
20260509161417 12 172 0.0 0.0 0.00 0.00 0.00 76 1018.7
20260509161340 12 168 0.0 0.0 0.00 0.00 0.00 76 1018.9
20260509161323 12 177 0.0 0.0 0.00 0.00 0.00 76 1019.2
20260509161307 12 175 0.0 0.0 0.00 0.00 0.00 76 1019.0
20260509161252 12 175 0.0 0.0 0.00 0.00 0.00 77 1019.0
20260509161024 12 170 0.0 0.0 0.00 0.00 0.00 76 1019.1
20260509161009 12 162 0.0 0.0 0.00 0.00 0.00 76 1019.1
20260509160732 12 141 0.0 3.2 0.00 0.00 0.00 76 1019.0
20260509160720 12 141 0.0 3.2 0.00 0.00 0.00 77 1019.0
20260509160404 12 173 0.0 3.2 0.00 0.00 0.00 77 1019.2
20260509160306 12 170 0.0 3.2 0.00 0.00 0.00 77 1019.1
20260509160204 12 172 0.0 3.2 0.00 0.00 0.00 77 1019.1
20260509160114 12 152 0.0 3.2 0.00 0.00 0.00 78 1019.4
20260509160100 12 151 0.0 3.2 0.00 0.00 0.00 77 1019.4
20260509160005 12 167 0.0 3.2 0.00 0.00 0.00 78 1019.1
20260509155905 12 170 0.0 3.2 0.00 0.00 0.00 78 1018.9
20260509155804 12 168 0.0 3.2 0.00 0.00 0.00 77 1018.9
20260509155748 12 117 0.0 3.2 0.00 0.00 0.00 77 1019.0
20260509155720 12 162 0.0 1.6 0.00 0.00 0.00 77 1019.0
20260509155441 12 119 0.0 0.0 0.00 0.00 0.00 77 1018.9
20260509155432 12 124 0.0 0.0 0.00 0.00 0.00 77 1019.1
20260509155416 12 124 0.0 0.0 0.00 0.00 0.00 77 1019.0
20260509155359 12 144 0.0 0.0 0.00 0.00 0.00 77 1019.1
20260509155342 12 119 0.0 0.0 0.00 0.00 0.00 77 1018.9
20260509155111 12 119 0.0 0.0 0.00 0.00 0.00 77 1019.1
20260509155054 12 181 0.0 0.0 0.00 0.00 0.00 77 1019.1
20260509155037 12 182 0.0 0.0 0.00 0.00 0.00 77 1019.0
20260509154551 12 182 0.0 0.0 0.00 0.00 0.00 77 1019.2
20260509154452 12 182 0.0 0.0 0.00 0.00 0.00 77 1019.1
20260509154351 12 182 0.0 0.0 0.00 0.00 0.00 77 1019.0
20260509154251 12 182 0.0 0.0 0.00 0.00 0.00 77 1019.0
20260509154153 12 181 0.0 0.0 0.00 0.00 0.00 77 1018.9
20260509154129 12 181 0.0 0.0 0.00 0.00 0.00 77 1019.0
20260509154112 12 182 0.0 0.0 0.00 0.00 0.00 77 1019.1
20260509153835 12 182 0.0 0.0 0.00 0.00 0.00 77 1019.1
20260509153818 12 185 0.0 0.0 0.00 0.00 0.00 77 1019.0
20260509153551 12 185 0.0 0.0 0.00 0.00 0.00 77 1019.0
20260509153528 12 188 0.0 1.6 0.00 0.00 0.00 77 1019.1
20260509153511 12 188 0.0 1.6 0.00 0.00 0.00 77 1019.0
20260509153151 12 177 0.0 3.2 0.00 0.00 0.00 77 1019.0
20260509153103 12 155 0.0 3.2 0.00 0.00 0.00 77 1018.8
20260509153047 12 173 0.0 3.2 0.00 0.00 0.00 77 1019.0
20260509153031 12 174 0.0 3.2 0.00 0.00 0.00 77 1019.0
20260509153016 12 180 0.0 3.2 0.00 0.00 0.00 77 1019.1
20260509152955 12 181 0.0 3.2 0.00 0.00 0.00 77 1019.0
20260509152933 12 155 0.0 3.2 0.00 0.00 0.00 77 1019.0
20260509152436 12 179 0.0 1.6 0.00 0.00 0.00 76 1019.1
20260509152420 12 178 0.0 1.6 0.00 0.00 0.00 76 1019.2
20260509152151 12 181 0.0 1.6 0.00 0.00 0.00 77 1019.0
20260509152135 12 176 0.0 1.6 0.00 0.00 0.00 76 1019.1
20260509151900 12 162 0.0 3.2 0.00 0.00 0.00 75 1019.0
20260509151844 12 163 0.0 3.2 0.00 0.00 0.00 75 1019.1
20260509151822 12 178 0.0 9.7 0.00 0.00 0.00 75 1019.1
20260509151807 12 177 0.0 9.7 0.00 0.00 0.00 75 1019.0
20260509151532 12 163 0.0 9.7 0.00 0.00 0.00 74 1019.0
20260509151246 12 139 0.0 9.7 0.00 0.00 0.00 74 1019.0
20260509151230 12 52 1.6 9.7 0.00 0.00 0.00 74 1019.2
20260509150651 12 58 3.2 9.7 0.00 0.00 0.00 73 1019.0
20260509150552 13 136 0.0 3.2 0.00 0.00 0.00 73 1019.1
20260509150451 13 168 0.0 3.2 0.00 0.00 0.00 74 1019.0
20260509150427 13 133 0.0 3.2 0.00 0.00 0.00 73 1019.2
20260509150412 13 179 0.0 3.2 0.00 0.00 0.00 74 1019.2
20260509150105 13 163 0.0 3.2 0.00 0.00 0.00 74 1019.1
20260509145952 13 148 0.0 3.2 0.00 0.00 0.00 73 1019.1
20260509145851 13 65 1.6 3.2 0.00 0.00 0.00 73 1019.0
20260509145752 13 177 0.0 0.0 0.00 0.00 0.00 74 1018.9
20260509145734 13 175 0.0 0.0 0.00 0.00 0.00 73 1019.3
20260509145712 13 177 0.0 0.0 0.00 0.00 0.00 74 1019.1
20260509145439 12 178 0.0 0.0 0.00 0.00 0.00 73 1019.1
20260509145430 13 180 0.0 0.0 0.00 0.00 0.00 73 1019.0
20260509145415 13 179 0.0 0.0 0.00 0.00 0.00 74 1018.9
20260509145359 12 179 0.0 0.0 0.00 0.00 0.00 73 1019.1
20260509145340 12 178 0.0 0.0 0.00 0.00 0.00 73 1019.1
20260509145114 12 150 0.0 0.0 0.00 0.00 0.00 73 1019.2
20260509144751 13 168 0.0 0.0 0.00 0.00 0.00 74 1019.3
20260509144651 13 171 0.0 1.6 0.00 0.00 0.00 75 1019.1
20260509144552 13 171 0.0 1.6 0.00 0.00 0.00 75 1019.1
20260509144451 13 162 0.0 1.6 0.00 0.00 0.00 75 1019.2
20260509144351 13 180 0.0 1.6 0.00 0.00 0.00 76 1019.1
20260509144251 12 182 0.0 1.6 0.00 0.00 0.00 76 1019.0
20260509144151 12 182 0.0 1.6 0.00 0.00 0.00 75 1019.2
20260509144053 12 181 0.0 1.6 0.00 0.00 0.00 75 1019.2
20260509143952 12 172 0.0 1.6 0.00 0.00 0.00 75 1019.3
20260509143840 12 109 0.0 1.6 0.00 0.00 0.00 75 1019.2
20260509143740 12 162 0.0 0.0 0.00 0.00 0.00 75 1018.9
20260509143639 12 186 0.0 0.0 0.00 0.00 0.00 75 1019.2
20260509143539 12 175 0.0 0.0 0.00 0.00 0.00 75 1019.1
20260509143440 12 174 0.0 0.0 0.00 0.00 0.00 75 1019.1
20260509143416 12 163 0.0 1.6 0.00 0.00 0.00 75 1019.1
20260509143400 12 165 0.0 1.6 0.00 0.00 0.00 75 1018.9
20260509143040 12 176 0.0 1.6 0.00 0.00 0.00 74 1019.0
20260509143014 12 172 0.0 1.6 0.00 0.00 0.00 75 1019.1
20260509142958 12 172 0.0 1.6 0.00 0.00 0.00 75 1018.9
20260509142942 12 146 0.0 1.6 0.00 0.00 0.00 74 1019.0
20260509142707 12 164 0.0 1.6 0.00 0.00 0.00 74 1019.1
20260509142700 12 125 0.0 1.6 0.00 0.00 0.00 74 1019.1
20260509142339 13 150 0.0 0.0 0.00 0.00 0.00 75 1019.2
20260509142239 12 176 0.0 0.0 0.00 0.00 0.00 75 1019.0
20260509142138 12 173 0.0 0.0 0.00 0.00 0.00 74 1019.0
20260509142041 12 173 0.0 0.0 0.00 0.00 0.00 73 1019.0
20260509141939 12 176 0.0 0.0 0.00 0.00 0.00 73 1019.0
20260509141839 13 168 0.0 0.0 0.00 0.00 0.00 73 1019.0
20260509141739 13 170 0.0 1.6 0.00 0.00 0.00 73 1019.1
20260509141629 12 161 0.0 1.6 0.00 0.00 0.00 73 1019.2
20260509141548 12 161 0.0 1.6 0.00 0.00 0.00 73 1019.2
20260509141527 12 173 0.0 1.6 0.00 0.00 0.00 73 1019.0
20260509141427 12 144 0.0 1.6 0.00 0.00 0.00 73 1019.1
20260509141329 12 137 0.0 1.6 0.00 0.00 0.00 73 1019.0
20260509141227 12 123 0.0 1.6 0.00 0.00 0.00 73 1019.1
20260509141129 12 167 0.0 1.6 0.00 0.00 0.00 73 1019.1
20260509141047 12 158 0.0 1.6 0.00 0.00 0.00 72 1019.1
20260509141027 12 142 0.0 1.6 0.00 0.00 0.00 72 1019.0
20260509141002 12 142 0.0 1.6 0.00 0.00 0.00 72 1019.1
20260509140948 12 151 0.0 1.6 0.00 0.00 0.00 72 1019.1
20260509140627 13 167 0.0 1.6 0.00 0.00 0.00 72 1019.0
20260509140547 13 167 0.0 1.6 0.00 0.00 0.00 72 1019.0
20260509140528 13 167 0.0 1.6 0.00 0.00 0.00 72 1019.1
20260509140427 13 174 0.0 1.6 0.00 0.00 0.00 72 1019.0
20260509140327 13 159 0.0 1.6 0.00 0.00 0.00 71 1019.0
20260509140227 13 121 0.0 1.6 0.00 0.00 0.00 72 1019.1
20260509140129 13 171 0.0 0.0 0.00 0.00 0.00 72 1019.2
20260509140059 13 172 0.0 0.0 0.00 0.00 0.00 72 1019.2
20260509140028 13 175 0.0 0.0 0.00 0.00 0.00 72 1019.1
20260509140005 13 179 0.0 0.0 0.00 0.00 0.00 71 1018.9
20260509135947 13 172 0.0 0.0 0.00 0.00 0.00 71 1019.0
20260509135626 13 176 0.0 0.0 0.00 0.00 0.00 71 1019.1
20260509135547 13 176 0.0 0.0 0.00 0.00 0.00 71 1019.1
20260509135528 13 176 0.0 0.0 0.00 0.00 0.00 70 1018.9
20260509135427 13 176 0.0 0.0 0.00 0.00 0.00 70 1019.1
20260509135327 13 149 0.0 0.0 0.00 0.00 0.00 71 1019.0
20260509135227 13 149 0.0 0.0 0.00 0.00 0.00 71 1019.1
20260509135127 13 174 0.0 0.0 0.00 0.00 0.00 71 1019.0
20260509135047 13 174 0.0 0.0 0.00 0.00 0.00 71 1019.0
20260509135027 13 174 0.0 0.0 0.00 0.00 0.00 71 1018.9
20260509134927 13 167 0.0 0.0 0.00 0.00 0.00 72 1019.1
20260509134827 13 131 0.0 0.0 0.00 0.00 0.00 71 1019.2
20260509134727 13 183 0.0 0.0 0.00 0.00 0.00 71 1019.1
20260509134645 13 174 0.0 0.0 0.00 0.00 0.00 70 1019.2
20260509134630 13 166 0.0 0.0 0.00 0.00 0.00 70 1019.2
20260509134622 13 188 0.0 0.0 0.00 0.00 0.00 70 1019.1
20260509134606 13 188 0.0 0.0 0.00 0.00 0.00 70 1019.0
20260509134551 13 188 0.0 0.0 0.00 0.00 0.00 70 1019.1
20260509134314 13 167 0.0 0.0 0.00 0.00 0.00 71 1019.0
20260509134257 13 177 0.0 0.0 0.00 0.00 0.00 71 1019.0
20260509134249 13 177 0.0 0.0 0.00 0.00 0.00 72 1019.1
20260509134234 13 175 0.0 0.0 0.00 0.00 0.00 72 1019.0
20260509133957 13 157 0.0 0.0 0.00 0.00 0.00 70 1019.1
20260509133942 13 188 0.0 0.0 0.00 0.00 0.00 70 1019.1
20260509133926 13 188 0.0 0.0 0.00 0.00 0.00 70 1019.1
20260509133439 13 184 0.0 0.0 0.00 0.00 0.00 70 1019.0
20260509133422 13 180 0.0 0.0 0.00 0.00 0.00 70 1019.2
20260509133407 13 179 0.0 0.0 0.00 0.00 0.00 70 1019.2
20260509133351 13 177 0.0 0.0 0.00 0.00 0.00 70 1019.2
20260509133343 13 167 0.0 0.0 0.00 0.00 0.00 70 1019.1
20260509133327 13 169 0.0 0.0 0.00 0.00 0.00 72 1019.3
20260509132832 12 177 0.0 0.0 0.00 0.00 0.00 71 1019.2
20260509132818 12 159 0.0 0.0 0.00 0.00 0.00 71 1019.2
20260509132549 12 156 0.0 0.0 0.00 0.00 0.00 72 1019.3
20260509132533 12 172 0.0 0.0 0.00 0.00 0.00 73 1019.3
20260509132516 12 169 0.0 0.0 0.00 0.00 0.00 73 1019.3
20260509132239 12 181 0.0 0.0 0.00 0.00 0.00 72 1019.1
20260509131927 12 160 0.0 0.0 0.00 0.00 0.00 73 1019.1
20260509131828 12 174 0.0 0.0 0.00 0.00 0.00 73 1019.2
20260509131726 12 183 0.0 0.0 0.00 0.00 0.00 73 1019.2
20260509131628 12 183 0.0 0.0 0.00 0.00 0.00 73 1019.2
20260509131547 12 185 0.0 0.0 0.00 0.00 0.00 72 1019.2
20260509131528 12 187 0.0 0.0 0.00 0.00 0.00 73 1019.2
20260509131447 12 185 0.0 0.0 0.00 0.00 0.00 75 1019.2
20260509131439 12 183 0.0 0.0 0.00 0.00 0.00 73 1019.2
20260509131424 12 183 0.0 0.0 0.00 0.00 0.00 73 1019.2
20260509131407 12 185 0.0 0.0 0.00 0.00 0.00 74 1019.2
20260509131141 12 186 0.0 0.0 0.00 0.00 0.00 74 1019.2
20260509131125 12 179 0.0 0.0 0.00 0.00 0.00 74 1019.2
20260509131117 12 180 0.0 0.0 0.00 0.00 0.00 74 1019.2
20260509131101 12 180 0.0 0.0 0.00 0.00 0.00 74 1019.1
20260509130823 12 185 0.0 0.0 0.00 0.00 0.00 75 1019.2
20260509130807 12 183 0.0 0.0 0.00 0.00 0.00 75 1019.2
20260509130528 12 188 0.0 0.0 0.00 0.00 0.00 76 1019.3
20260509130429 12 188 0.0 0.0 0.00 0.00 0.00 76 1019.1
20260509130327 12 187 0.0 0.0 0.00 0.00 0.00 75 1019.1
20260509130226 12 187 0.0 0.0 0.00 0.00 0.00 75 1019.1
20260509130127 12 181 0.0 0.0 0.00 0.00 0.00 76 1019.2
20260509130027 12 180 0.0 0.0 0.00 0.00 0.00 76 1019.2
20260509125927 12 180 0.0 0.0 0.00 0.00 0.00 76 1019.1
20260509125827 12 180 0.0 0.0 0.00 0.00 0.00 75 1019.1
20260509125727 12 179 0.0 0.0 0.00 0.00 0.00 75 1019.1
20260509125628 12 175 0.0 0.0 0.00 0.00 0.00 75 1019.4
20260509125547 12 175 0.0 0.0 0.00 0.00 0.00 74 1019.4
20260509125527 12 176 0.0 0.0 0.00 0.00 0.00 74 1019.1
20260509125429 12 172 0.0 0.0 0.00 0.00 0.00 74 1019.0
20260509125405 12 164 0.0 0.0 0.00 0.00 0.00 75 1019.3
20260509125348 12 171 0.0 0.0 0.00 0.00 0.00 75 1019.3
20260509125048 12 177 0.0 0.0 0.00 0.00 0.00 76 1019.2
20260509125028 12 177 0.0 0.0 0.00 0.00 0.00 75 1019.4
20260509124927 12 177 0.0 0.0 0.00 0.00 0.00 76 1019.3
20260509124827 12 178 0.0 0.0 0.00 0.00 0.00 75 1019.2
20260509124802 12 166 0.0 0.0 0.00 0.00 0.00 75 1019.3
20260509124746 12 180 0.0 0.0 0.00 0.00 0.00 75 1019.2
20260509124732 12 180 0.0 0.0 0.00 0.00 0.00 75 1019.2
20260509124724 12 179 0.0 0.0 0.00 0.00 0.00 75 1019.3
20260509124709 12 168 0.0 0.0 0.00 0.00 0.00 75 1019.1
20260509124127 12 181 0.0 0.0 0.00 0.00 0.00 75 1019.2
20260509124047 12 173 0.0 0.0 0.00 0.00 0.00 75 1019.2
20260509124028 12 156 0.0 1.6 0.00 0.00 0.00 75 1019.0
20260509123927 12 179 0.0 1.6 0.00 0.00 0.00 74 1019.2
20260509123827 12 182 0.0 1.6 0.00 0.00 0.00 74 1019.3
20260509123726 12 184 0.0 1.6 0.00 0.00 0.00 75 1019.2
20260509123628 12 182 0.0 1.6 0.00 0.00 0.00 75 1019.2
20260509123548 12 172 0.0 1.6 0.00 0.00 0.00 75 1019.2
20260509123528 12 169 0.0 1.6 0.00 0.00 0.00 75 1019.2
20260509123428 12 145 0.0 1.6 0.00 0.00 0.00 74 1019.0
20260509123347 12 186 0.0 4.8 0.00 0.00 0.00 73 1019.4
20260509123340 12 184 0.0 1.6 0.00 0.00 0.00 74 1019.2
20260509123324 12 172 0.0 3.2 0.00 0.00 0.00 74 1019.2
20260509123309 12 174 0.0 4.8 0.00 0.00 0.00 73 1019.4
20260509123027 12 182 0.0 4.8 0.00 0.00 0.00 73 1019.3
20260509122928 12 178 0.0 4.8 0.00 0.00 0.00 73 1019.2
20260509122827 12 174 0.0 4.8 0.00 0.00 0.00 73 1019.4
20260509122808 12 176 0.0 4.8 0.00 0.00 0.00 73 1019.4
20260509122753 12 167 0.0 4.8 0.00 0.00 0.00 73 1019.2
20260509122739 12 168 0.0 4.8 0.00 0.00 0.00 73 1019.2
20260509122502 12 167 0.0 4.8 0.00 0.00 0.00 72 1019.4
20260509122454 12 152 0.0 4.8 0.00 0.00 0.00 73 1019.3
20260509122438 12 150 0.0 4.8 0.00 0.00 0.00 73 1019.4
20260509122422 12 154 0.0 4.8 0.00 0.00 0.00 72 1019.4
20260509122407 12 31 1.6 4.8 0.00 0.00 0.00 72 1019.4
20260509122138 12 69 0.0 4.8 0.00 0.00 0.00 72 1019.2
20260509122123 13 80 0.0 1.6 0.00 0.00 0.00 72 1019.4
20260509121847 13 182 0.0 1.6 0.00 0.00 0.00 74 1019.4
20260509121547 13 156 0.0 1.6 0.00 0.00 0.00 72 1019.3
20260509121528 13 151 0.0 1.6 0.00 0.00 0.00 72 1019.4
20260509121427 13 170 0.0 1.6 0.00 0.00 0.00 72 1019.4
20260509121327 13 174 0.0 1.6 0.00 0.00 0.00 72 1019.1
20260509121227 13 158 0.0 1.6 0.00 0.00 0.00 72 1019.5
20260509121127 13 173 0.0 0.0 0.00 0.00 0.00 72 1019.6
20260509121049 13 160 0.0 0.0 0.00 0.00 0.00 72 1019.6
20260509121027 13 179 0.0 0.0 0.00 0.00 0.00 72 1019.2
20260509120927 13 179 0.0 0.0 0.00 0.00 0.00 73 1019.2
20260509120828 13 157 0.0 0.0 0.00 0.00 0.00 73 1019.4
20260509120727 13 186 0.0 0.0 0.00 0.00 0.00 73 1019.3
20260509120709 13 181 0.0 0.0 0.00 0.00 0.00 72 1019.3
20260509120655 13 179 0.0 0.0 0.00 0.00 0.00 72 1019.3
20260509120647 13 179 0.0 0.0 0.00 0.00 0.00 72 1019.4
20260509120327 13 179 0.0 0.0 0.00 0.00 0.00 72 1019.3
20260509120227 13 177 0.0 0.0 0.00 0.00 0.00 72 1019.2
20260509120132 13 188 0.0 1.6 0.00 0.00 0.00 72 1019.3
20260509120128 13 174 0.0 0.0 0.00 0.00 0.00 72 1019.3
20260509120112 13 176 0.0 0.0 0.00 0.00 0.00 73 1019.3
20260509120047 13 166 0.0 0.0 0.00 0.00 0.00 73 1019.4
20260509120031 13 157 0.0 0.0 0.00 0.00 0.00 73 1019.4
20260509120015 13 131 0.0 1.6 0.00 0.00 0.00 72 1019.3
20260509120000 13 188 0.0 1.6 0.00 0.00 0.00 73 1019.3
20260509115503 13 174 0.0 1.6 0.00 0.00 0.00 72 1019.2
20260509115447 13 173 0.0 1.6 0.00 0.00 0.00 71 1019.3
20260509115431 13 159 0.0 1.6 0.00 0.00 0.00 71 1019.4
20260509115416 13 169 0.0 1.6 0.00 0.00 0.00 71 1019.1
20260509115359 13 164 0.0 1.6 0.00 0.00 0.00 71 1019.1
20260509114828 13 111 0.0 1.6 0.00 0.00 0.00 70 1019.4
20260509114811 13 171 0.0 0.0 0.00 0.00 0.00 71 1019.2
20260509114755 13 177 0.0 0.0 0.00 0.00 0.00 71 1019.4
20260509114740 13 178 0.0 0.0 0.00 0.00 0.00 70 1019.4
20260509114428 13 179 0.0 0.0 0.00 0.00 0.00 70 1019.3
20260509114406 13 162 0.0 0.0 0.00 0.00 0.00 70 1019.4
20260509114349 13 179 0.0 0.0 0.00 0.00 0.00 71 1019.5
20260509114331 13 180 0.0 0.0 0.00 0.00 0.00 70 1019.4
20260509114315 13 170 0.0 0.0 0.00 0.00 0.00 70 1019.4
20260509114047 13 150 0.0 0.0 0.00 0.00 0.00 69 1019.5
20260509113727 13 164 0.0 0.0 0.00 0.00 0.00 69 1019.4
20260509113626 13 170 0.0 0.0 0.00 0.00 0.00 70 1019.4
20260509113547 13 167 0.0 0.0 0.00 0.00 0.00 70 1019.4
20260509113527 13 150 0.0 0.0 0.00 0.00 0.00 70 1019.4
20260509113427 13 183 0.0 0.0 0.00 0.00 0.00 71 1019.3
20260509113327 13 176 0.0 0.0 0.00 0.00 0.00 71 1019.5
20260509113228 13 182 0.0 0.0 0.00 0.00 0.00 72 1019.3
20260509113126 13 181 0.0 1.6 0.00 0.00 0.00 71 1019.4
20260509113047 13 180 0.0 1.6 0.00 0.00 0.00 71 1019.4
20260509113027 13 166 0.0 1.6 0.00 0.00 0.00 71 1019.4
20260509112942 13 153 0.0 1.6 0.00 0.00 0.00 71 1019.4
20260509112934 13 167 0.0 1.6 0.00 0.00 0.00 72 1019.6
20260509112919 13 178 0.0 1.6 0.00 0.00 0.00 71 1019.4
20260509112902 13 169 0.0 1.6 0.00 0.00 0.00 71 1019.3
20260509112846 13 154 0.0 1.6 0.00 0.00 0.00 71 1019.4
20260509112620 13 165 0.0 1.6 0.00 0.00 0.00 70 1019.4
20260509112605 13 149 0.0 1.6 0.00 0.00 0.00 71 1019.6
20260509112549 13 176 0.0 1.6 0.00 0.00 0.00 70 1019.4
20260509112533 13 174 0.0 1.6 0.00 0.00 0.00 69 1019.2
20260509112257 13 177 0.0 1.6 0.00 0.00 0.00 69 1019.5
20260509112248 13 178 0.0 1.6 0.00 0.00 0.00 69 1019.3
20260509112232 13 170 0.0 1.6 0.00 0.00 0.00 69 1019.5
20260509111728 13 151 0.0 1.6 0.00 0.00 0.00 68 1019.4
20260509111719 13 129 0.0 1.6 0.00 0.00 0.00 68 1019.6
20260509111703 13 137 0.0 1.6 0.00 0.00 0.00 69 1019.3
20260509111647 13 181 0.0 1.6 0.00 0.00 0.00 71 1019.4
20260509111410 13 181 0.0 1.6 0.00 0.00 0.00 69 1019.4
20260509111355 13 183 0.0 1.6 0.00 0.00 0.00 69 1019.4
20260509111333 13 182 0.0 1.6 0.00 0.00 0.00 69 1019.3
20260509111056 13 184 0.0 1.6 0.00 0.00 0.00 69 1019.4
20260509110547 13 165 0.0 1.6 0.00 0.00 0.00 67 1019.3
20260509110515 13 136 0.0 1.6 0.00 0.00 0.00 68 1019.4
20260509110415 13 175 0.0 1.6 0.00 0.00 0.00 69 1019.4
20260509110352 13 179 0.0 1.6 0.00 0.00 0.00 69 1019.4
20260509110336 13 168 0.0 1.6 0.00 0.00 0.00 69 1019.4
20260509110059 13 175 0.0 1.6 0.00 0.00 0.00 69 1019.6
20260509110015 13 182 0.0 1.6 0.00 0.00 0.00 70 1019.5
20260509105915 13 175 0.0 1.6 0.00 0.00 0.00 71 1019.6
20260509105816 13 167 0.0 1.6 0.00 0.00 0.00 71 1019.4
20260509105716 13 182 0.0 1.6 0.00 0.00 0.00 72 1019.4
20260509105615 13 134 0.0 1.6 0.00 0.00 0.00 72 1019.4
20260509105548 13 154 0.0 1.6 0.00 0.00 0.00 74 1019.4
20260509105517 13 176 0.0 1.6 0.00 0.00 0.00 74 1019.7
20260509105415 13 160 0.0 1.6 0.00 0.00 0.00 74 1019.5
20260509105315 13 96 0.0 1.6 0.00 0.00 0.00 73 1019.3
20260509105257 13 160 0.0 1.6 0.00 0.00 0.00 74 1019.4
20260509105240 13 181 0.0 0.0 0.00 0.00 0.00 74 1019.5
20260509105214 13 185 0.0 0.0 0.00 0.00 0.00 74 1019.5
20260509105157 13 185 0.0 0.0 0.00 0.00 0.00 73 1019.7
20260509104615 13 172 0.0 0.0 0.00 0.00 0.00 72 1019.4
20260509104547 13 182 0.0 0.0 0.00 0.00 0.00 72 1019.4
20260509104515 13 178 0.0 0.0 0.00 0.00 0.00 73 1019.5
20260509104415 13 190 0.0 0.0 0.00 0.00 0.00 72 1019.5
20260509104355 13 138 0.0 0.0 0.00 0.00 0.00 72 1019.3
20260509104340 13 159 0.0 0.0 0.00 0.00 0.00 72 1019.6
20260509104324 13 167 0.0 3.2 0.00 0.00 0.00 73 1019.7
20260509104311 13 184 0.0 3.2 0.00 0.00 0.00 73 1019.7
20260509104040 13 179 0.0 3.2 0.00 0.00 0.00 73 1019.7
20260509104025 13 140 0.0 3.2 0.00 0.00 0.00 73 1019.3
20260509104008 13 180 0.0 3.2 0.00 0.00 0.00 73 1019.6
20260509103735 13 181 0.0 3.2 0.00 0.00 0.00 73 1019.6
20260509103435 13 107 0.0 3.2 0.00 0.00 0.00 74 1019.4
20260509103430 13 143 0.0 3.2 0.00 0.00 0.00 72 1019.6
20260509103424 13 182 0.0 3.2 0.00 0.00 0.00 74 1019.7
20260509103408 13 160 0.0 3.2 0.00 0.00 0.00 74 1019.5
20260509103353 13 177 0.0 3.2 0.00 0.00 0.00 73 1019.5
20260509103337 13 165 0.0 3.2 0.00 0.00 0.00 74 1019.4
20260509103108 13 187 0.0 3.2 0.00 0.00 0.00 73 1019.5
20260509103052 13 179 0.0 3.2 0.00 0.00 0.00 74 1019.7
20260509103036 13 177 0.0 3.2 0.00 0.00 0.00 73 1019.6
20260509103021 13 175 0.0 3.2 0.00 0.00 0.00 73 1019.9
20260509102512 13 166 0.0 3.2 0.00 0.00 0.00 73 1019.5
20260509102446 13 170 0.0 3.2 0.00 0.00 0.00 73 1019.4
20260509102430 13 204 0.0 3.2 0.00 0.00 0.00 73 1019.6
20260509102111 13 156 0.0 0.0 0.00 0.00 0.00 73 1019.6
20260509102045 13 182 0.0 0.0 0.00 0.00 0.00 75 1019.6
20260509102011 13 179 0.0 0.0 0.00 0.00 0.00 75 1019.9
20260509101911 12 175 0.0 0.0 0.00 0.00 0.00 74 1019.5
20260509101811 12 174 0.0 0.0 0.00 0.00 0.00 75 1019.5
20260509101712 12 165 0.0 0.0 0.00 0.00 0.00 74 1019.6
20260509101611 12 166 0.0 1.6 0.00 0.00 0.00 74 1019.8
20260509101544 12 154 0.0 1.6 0.00 0.00 0.00 74 1019.8
20260509101512 12 172 0.0 1.6 0.00 0.00 0.00 74 1019.5
20260509101412 12 162 0.0 1.6 0.00 0.00 0.00 75 1019.7
20260509101348 12 173 0.0 1.6 0.00 0.00 0.00 74 1019.7
20260509101331 12 176 0.0 1.6 0.00 0.00 0.00 75 1019.5
20260509101043 12 159 0.0 1.6 0.00 0.00 0.00 74 1019.7
20260509101012 12 173 0.0 1.6 0.00 0.00 0.00 74 1019.6
20260509100911 12 167 0.0 1.6 0.00 0.00 0.00 74 1019.6
20260509100811 12 177 0.0 1.6 0.00 0.00 0.00 73 1019.4
20260509100752 12 119 0.0 1.6 0.00 0.00 0.00 73 1019.7
20260509100737 12 142 0.0 1.6 0.00 0.00 0.00 73 1019.8
20260509100724 12 144 0.0 1.6 0.00 0.00 0.00 73 1019.8
20260509100412 12 174 0.0 3.2 0.00 0.00 0.00 74 1019.9
20260509100346 12 165 0.0 3.2 0.00 0.00 0.00 74 1019.7
20260509100331 12 127 0.0 3.2 0.00 0.00 0.00 74 1019.8
20260509100056 12 178 0.0 3.2 0.00 0.00 0.00 75 1019.7
20260509100012 12 172 0.0 3.2 0.00 0.00 0.00 75 1019.6
20260509095911 12 167 0.0 3.2 0.00 0.00 0.00 75 1019.7
20260509095811 12 157 0.0 3.2 0.00 0.00 0.00 75 1019.6
20260509095710 12 180 0.0 3.2 0.00 0.00 0.00 76 1019.5
20260509095612 12 132 0.0 3.2 0.00 0.00 0.00 75 1019.7
20260509095543 12 174 0.0 3.2 0.00 0.00 0.00 75 1019.7
20260509095511 12 143 0.0 1.6 0.00 0.00 0.00 76 1019.5
20260509095412 12 168 0.0 1.6 0.00 0.00 0.00 76 1019.5
20260509095312 12 163 0.0 1.6 0.00 0.00 0.00 76 1019.5
20260509095211 12 153 0.0 1.6 0.00 0.00 0.00 76 1019.7
20260509095111 12 181 0.0 1.6 0.00 0.00 0.00 75 1019.7
20260509095058 12 179 0.0 3.2 0.00 0.00 0.00 76 1019.7
20260509095047 12 176 0.0 3.2 0.00 0.00 0.00 76 1019.5
20260509095031 12 172 0.0 3.2 0.00 0.00 0.00 75 1019.7
20260509094746 12 120 0.0 3.2 0.00 0.00 0.00 74 1019.6
20260509094731 12 165 0.0 3.2 0.00 0.00 0.00 75 1019.6
20260509094719 12 158 0.0 3.2 0.00 0.00 0.00 75 1019.6
20260509094710 12 172 0.0 3.2 0.00 0.00 0.00 75 1019.5
20260509094653 12 163 0.0 3.2 0.00 0.00 0.00 75 1019.7
20260509094111 12 113 1.6 3.2 0.00 0.00 0.00 74 1019.5
20260509094043 12 172 0.0 1.6 0.00 0.00 0.00 74 1019.5
20260509094011 12 167 0.0 1.6 0.00 0.00 0.00 74 1019.6
20260509093912 12 175 0.0 1.6 0.00 0.00 0.00 74 1019.8
20260509093811 12 168 0.0 1.6 0.00 0.00 0.00 74 1019.4
20260509093711 12 89 0.0 1.6 0.00 0.00 0.00 73 1019.6
20260509093611 12 97 0.0 1.6 0.00 0.00 0.00 73 1019.7
20260509093545 12 168 0.0 1.6 0.00 0.00 0.00 73 1019.7
20260509093511 12 181 0.0 1.6 0.00 0.00 0.00 73 1019.6
20260509093412 12 180 0.0 1.6 0.00 0.00 0.00 74 1019.6
20260509093310 12 191 0.0 1.6 0.00 0.00 0.00 74 1019.6
20260509093213 12 74 0.0 1.6 0.00 0.00 0.00 74 1019.5
20260509093112 12 161 0.0 1.6 0.00 0.00 0.00 74 1019.5
20260509093043 12 180 0.0 1.6 0.00 0.00 0.00 74 1019.5
20260509093012 12 174 0.0 1.6 0.00 0.00 0.00 74 1019.4
20260509092912 12 168 0.0 1.6 0.00 0.00 0.00 74 1019.4
20260509092811 12 133 0.0 1.6 0.00 0.00 0.00 74 1019.6
20260509092711 12 151 0.0 1.6 0.00 0.00 0.00 74 1019.7
20260509092611 12 163 0.0 1.6 0.00 0.00 0.00 73 1019.5
20260509092544 12 127 0.0 1.6 0.00 0.00 0.00 74 1019.5
20260509092512 12 181 0.0 1.6 0.00 0.00 0.00 73 1019.6
20260509092411 12 162 0.0 1.6 0.00 0.00 0.00 74 1019.9
20260509092311 12 172 0.0 1.6 0.00 0.00 0.00 74 1019.7
20260509092211 12 167 0.0 1.6 0.00 0.00 0.00 75 1019.8
20260509092112 12 162 0.0 1.6 0.00 0.00 0.00 74 1019.8
20260509092044 12 172 0.0 1.6 0.00 0.00 0.00 74 1019.8
20260509092011 12 162 0.0 1.6 0.00 0.00 0.00 74 1019.8
20260509091912 12 179 0.0 1.6 0.00 0.00 0.00 74 1019.7
20260509091812 12 175 0.0 4.8 0.00 0.00 0.00 74 1019.8
20260509091754 12 178 0.0 4.8 0.00 0.00 0.00 74 1019.7
20260509091738 12 140 0.0 4.8 0.00 0.00 0.00 74 1019.6
20260509091725 12 150 0.0 4.8 0.00 0.00 0.00 74 1019.6
20260509091411 12 176 0.0 11.3 0.00 0.00 0.00 73 1019.6
20260509091259 12 175 0.0 11.3 0.00 0.00 0.00 73 1019.4
20260509091159 12 176 0.0 11.3 0.00 0.00 0.00 73 1019.7
20260509091059 12 171 0.0 11.3 0.00 0.00 0.00 73 1019.7
20260509091043 12 171 0.0 11.3 0.00 0.00 0.00 74 1019.7
20260509090959 12 159 0.0 11.3 0.00 0.00 0.00 73 1019.4
20260509090859 12 55 1.6 11.3 0.00 0.00 0.00 73 1019.4
20260509090759 12 170 0.0 11.3 0.00 0.00 0.00 74 1019.5
20260509090741 12 174 0.0 11.3 0.00 0.00 0.00 74 1019.8
20260509090725 12 164 0.0 11.3 0.00 0.00 0.00 74 1019.7
20260509090713 12 151 0.0 11.3 0.00 0.00 0.00 74 1019.7
20260509090359 12 82 1.6 4.8 0.00 0.00 0.00 74 1019.7
20260509090300 12 171 0.0 4.8 0.00 0.00 0.00 74 1019.4
20260509090200 12 146 0.0 4.8 0.00 0.00 0.00 74 1019.5
20260509090110 12 180 0.0 4.8 0.00 0.00 0.00 75 1019.5
20260509090058 12 178 0.0 4.8 0.00 0.00 0.00 74 1019.5
20260509085959 12 161 0.0 4.8 0.00 0.00 0.00 74 1019.5
20260509085858 12 119 0.0 4.8 0.00 0.00 0.00 74 1019.6
20260509085830 12 55 1.6 4.8 0.00 0.00 0.00 74 1019.8
20260509085814 12 177 0.0 4.8 0.00 0.00 0.00 74 1019.7
20260509085547 12 40 1.6 4.8 0.00 0.00 0.00 74 1019.6
20260509085436 12 142 0.0 1.6 0.00 0.00 0.00 75 1019.6
20260509085337 12 175 0.0 0.0 0.00 0.00 0.00 76 1019.5
20260509085320 12 171 0.0 0.0 0.00 0.00 0.00 76 1019.4
20260509085306 12 172 0.0 0.0 0.00 0.00 0.00 76 1019.4
20260509085035 12 170 0.0 0.0 0.00 0.00 0.00 76 1019.5
20260509084741 12 161 0.0 1.6 0.00 0.00 0.00 75 1019.4
20260509084428 12 128 0.0 1.6 0.00 0.00 0.00 75 1019.5
20260509084328 12 170 0.0 1.6 0.00 0.00 0.00 77 1019.2
20260509084228 12 179 0.0 0.0 0.00 0.00 0.00 77 1019.5
20260509084130 12 175 0.0 0.0 0.00 0.00 0.00 77 1019.5
20260509084114 12 135 0.0 0.0 0.00 0.00 0.00 77 1019.5
20260509084104 12 152 0.0 0.0 0.00 0.00 0.00 76 1019.3
20260509084048 12 176 0.0 0.0 0.00 0.00 0.00 76 1019.6
20260509083728 12 156 0.0 0.0 0.00 0.00 0.00 75 1019.6
20260509083628 13 148 0.0 0.0 0.00 0.00 0.00 75 1019.4
20260509083548 13 162 0.0 0.0 0.00 0.00 0.00 76 1019.4
20260509083528 13 129 0.0 0.0 0.00 0.00 0.00 76 1019.5
20260509083505 13 181 0.0 0.0 0.00 0.00 0.00 76 1019.6
20260509083449 13 171 0.0 1.6 0.00 0.00 0.00 76 1019.4
20260509083433 12 175 0.0 1.6 0.00 0.00 0.00 76 1019.4
20260509083417 12 161 0.0 1.6 0.00 0.00 0.00 76 1019.3
20260509083403 12 181 0.0 1.6 0.00 0.00 0.00 76 1019.3
20260509082846 12 167 0.0 1.6 0.00 0.00 0.00 75 1019.5
20260509082840 12 179 0.0 1.6 0.00 0.00 0.00 75 1019.4
20260509082823 12 182 0.0 1.6 0.00 0.00 0.00 75 1019.5
20260509082807 12 176 0.0 1.6 0.00 0.00 0.00 76 1019.5
20260509082527 12 123 0.0 1.6 0.00 0.00 0.00 75 1019.5
20260509082428 12 199 0.0 1.6 0.00 0.00 0.00 75 1019.4
20260509082327 12 175 0.0 1.6 0.00 0.00 0.00 76 1019.3
20260509082227 12 149 0.0 1.6 0.00 0.00 0.00 76 1019.3
20260509082127 12 184 0.0 1.6 0.00 0.00 0.00 76 1019.3
20260509082047 12 177 0.0 1.6 0.00 0.00 0.00 76 1019.2
20260509082028 12 174 0.0 1.6 0.00 0.00 0.00 76 1019.3
20260509081927 12 180 0.0 1.6 0.00 0.00 0.00 77 1019.2
20260509081902 12 179 0.0 1.6 0.00 0.00 0.00 76 1019.4
20260509081846 12 169 0.0 1.6 0.00 0.00 0.00 76 1019.5
20260509081548 12 116 0.0 1.6 0.00 0.00 0.00 76 1019.4
20260509081528 12 146 0.0 1.6 0.00 0.00 0.00 77 1019.4
20260509081428 12 171 0.0 1.6 0.00 0.00 0.00 77 1019.3
20260509081328 12 167 0.0 1.6 0.00 0.00 0.00 76 1019.4
20260509081228 12 60 0.0 1.6 0.00 0.00 0.00 76 1019.3
20260509081127 12 163 0.0 1.6 0.00 0.00 0.00 76 1019.3
20260509081048 12 182 0.0 1.6 0.00 0.00 0.00 76 1019.3
20260509081028 12 172 0.0 1.6 0.00 0.00 0.00 76 1019.4
20260509080927 12 173 0.0 1.6 0.00 0.00 0.00 76 1019.3
20260509080827 12 108 0.0 1.6 0.00 0.00 0.00 76 1019.5
20260509080727 12 184 0.0 1.6 0.00 0.00 0.00 76 1019.1
20260509080654 12 172 0.0 1.6 0.00 0.00 0.00 76 1019.3
20260509080647 12 178 0.0 1.6 0.00 0.00 0.00 76 1019.2
20260509080633 12 210 0.0 1.6 0.00 0.00 0.00 76 1019.2
20260509080625 12 194 0.0 1.6 0.00 0.00 0.00 77 1019.3
20260509080609 12 171 0.0 1.6 0.00 0.00 0.00 78 1019.3
20260509080554 12 169 0.0 1.6 0.00 0.00 0.00 77 1019.3
20260509080538 12 159 0.0 1.6 0.00 0.00 0.00 77 1019.5
20260509080027 12 160 0.0 1.6 0.00 0.00 0.00 76 1019.5
20260509075927 12 167 0.0 1.6 0.00 0.00 0.00 76 1019.2